Sigfox identifier Datetime Temperature Humidity SNR
003B5D72 2019-04-12 12:51:10 21.1 18 19.4
003B5D72 2019-04-12 12:22:05 21 17 19.4
003B5D72 2019-04-12 11:52:58 21 17 19.4
003B5D72 2019-04-12 11:23:47 21.1 18 19.1
003B5D72 2019-04-12 10:54:37 21.1 18 16.3
003B5D72 2019-04-12 10:25:28 21 18 16.4
003B5D72 2019-04-12 09:56:21 21 18 16.3
003B5D72 2019-04-12 09:26:43 20.9 17 16.6
003B5D72 2019-04-12 08:57:38 20.9 17 16.8
003B5D72 2019-04-12 08:28:32 20.9 18 16.8
003B5D72 2019-04-12 07:59:21 20.9 18 16.8
003B5D72 2019-04-12 07:30:14 20.9 18 16.7
003B5D72 2019-04-12 07:01:06 20.9 18 16.5
003B5D72 2019-04-12 06:32:01 20.9 18 16.2
003B5D72 2019-04-12 06:02:55 20.9 18 15.9
003B5D72 2019-04-12 05:33:46 20.9 18 15.5
003B5D72 2019-04-12 05:04:39 21 18 15.7
003B5D72 2019-04-12 04:35:34 21 18 15.7
003B5D72 2019-04-12 04:06:28 21 18 15.7
003B5D72 2019-04-12 03:37:18 21 18 15.8
003B5D72 2019-04-12 03:08:11 21 18 15.9
003B5D72 2019-04-12 02:39:03 21.1 18 15.6
003B5D72 2019-04-12 02:09:57 21.1 18 15.2
003B5D72 2019-04-12 01:40:51 21.1 18 15.2
003B5D72 2019-04-12 01:11:44 21.2 18 15.1
003B5D72 2019-04-12 00:42:37 21.2 18 15
003B5D72 2019-04-12 00:13:32 21.3 18 15.1
003B5D72 2019-04-11 23:44:24 21.4 18 14.9
003B5D72 2019-04-11 23:15:20 21.4 18 14.8
003B5D72 2019-04-11 22:46:10 21.4 18 14.8
003B5D72 2019-04-11 22:17:05 21.4 18 14.6
003B5D72 2019-04-11 21:47:56 21.4 18 14.8
003B5D72 2019-04-11 21:18:49 21.4 18 14.5
003B5D72 2019-04-11 20:49:44 21.4 18 14.5
003B5D72 2019-04-11 20:20:40 21.4 17 14.2
003B5D72 2019-04-11 19:51:34 21.3 17 18.2
003B5D72 2019-04-11 19:22:26 21.2 17 18
003B5D72 2019-04-11 18:53:22 21.2 17 17.9
003B5D72 2019-04-11 18:24:13 21.2 17 17.9
003B5D72 2019-04-11 17:55:06 21.2 17 18.1
003B5D72 2019-04-11 16:56:52 21.3 17 18.3
003B5D72 2019-04-11 16:27:45 21.3 18 18.3
003B5D72 2019-04-11 15:58:39 21.2 18 18.3
003B5D72 2019-04-11 15:29:33 21.1 18 18.3
003B5D72 2019-04-11 15:00:23 21 18 18.3
003B5D72 2019-04-11 14:31:16 21 18 18.3
003B5D72 2019-04-11 14:02:05 20.9 18 18.3
003B5D72 2019-04-11 13:33:00 20.8 18 18.3
003B5D72 2019-04-11 13:03:47 20.8 18 18.4
003B5D72 2019-04-11 12:34:37 20.8 18 18.4
003B5D72 2019-04-11 11:36:23 20.9 18 18.6
003B5D72 2019-04-11 11:07:15 20.9 18 18.6
003B5D72 2019-04-11 10:38:09 20.8 18 18.7
003B5D72 2019-04-11 10:09:00 20.7 18 18.7
003B5D72 2019-04-11 09:39:53 20.7 18 18.7
003B5D72 2019-04-11 09:10:13 20.7 18 18.6
003B5D72 2019-04-11 08:41:06 20.7 18 18.7
003B5D72 2019-04-11 08:12:00 20.7 18 18.8
003B5D72 2019-04-11 07:42:50 20.7 18 19
003B5D72 2019-04-11 07:13:42 20.8 18 16
003B5D72 2019-04-11 06:44:35 20.7 18 16
003B5D72 2019-04-11 06:15:26 20.8 18 16.3
003B5D72 2019-04-11 05:46:18 20.8 18 16.4
003B5D72 2019-04-11 05:17:14 20.8 18 16.3
003B5D72 2019-04-11 04:48:07 20.8 18 16
003B5D72 2019-04-11 04:19:00 20.8 18 15.7
003B5D72 2019-04-11 03:49:56 20.8 19 15.8
003B5D72 2019-04-11 03:20:48 20.8 19 16
003B5D72 2019-04-11 02:51:42 20.9 19 15.9
003B5D72 2019-04-11 02:22:37 20.9 19 15.8
003B5D72 2019-04-11 01:53:28 20.9 19 16.3
003B5D72 2019-04-11 01:24:22 20.9 19 16.3
003B5D72 2019-04-11 00:55:16 21 19 16.2
003B5D72 2019-04-11 00:26:12 21 19 16.2
003B5D72 2019-04-10 23:57:05 21 19 16.1
003B5D72 2019-04-10 23:27:54 21 19 15.9
003B5D72 2019-04-10 22:58:47 21 19 15.9
003B5D72 2019-04-10 22:29:40 21 19 15.8
003B5D72 2019-04-10 22:00:33 21 19 15.7
003B5D72 2019-04-10 21:31:29 21 19 15.7
003B5D72 2019-04-10 21:02:23 20.9 19 15.6
003B5D72 2019-04-10 20:33:15 20.9 19 15.7
003B5D72 2019-04-10 20:04:09 20.9 19 15.4
003B5D72 2019-04-10 19:35:01 20.8 19 15.7
003B5D72 2019-04-10 19:05:55 20.8 19 15.7
003B5D72 2019-04-10 18:36:48 20.8 19 15.3
003B5D72 2019-04-10 18:07:43 20.8 19 15.1
003B5D72 2019-04-10 17:38:33 20.7 19 14.6
003B5D72 2019-04-10 17:09:27 20.8 19 14.6
003B5D72 2019-04-10 16:40:20 20.8 19 14.7
003B5D72 2019-04-10 16:11:17 20.8 20 14.4
003B5D72 2019-04-10 15:42:08 20.8 20 14
003B5D72 2019-04-10 15:13:00 20.8 20 14.1
003B5D72 2019-04-10 14:43:52 20.9 20 14.1
003B5D72 2019-04-10 14:14:44 20.9 20 13.2
003B5D72 2019-04-10 13:16:31 20.8 21 13.5
003B5D72 2019-04-10 12:47:25 20.8 21 13.6
003B5D72 2019-04-10 12:18:15 20.8 21 13.5
003B5D72 2019-04-10 11:49:07 20.8 21 13.2
003B5D72 2019-04-10 10:50:55 20.7 21 13.7
003B5D72 2019-04-10 10:21:51 20.7 22 13.7
003B5D72 2019-04-10 08:53:55 20.6 23 13.5
003B5D72 2019-04-10 07:55:40 20.6 23 13.6
003B5D72 2019-04-10 06:57:22 20.6 24 14
003B5D72 2019-04-10 05:30:05 20.6 24 18.1
003B5D72 2019-04-10 03:33:30 20.6 25 18.1
003B5D72 2019-04-10 03:04:21 20.7 25 18.1
003B5D72 2019-04-10 02:35:12 20.7 25 18
003B5D72 2019-04-10 02:06:06 20.7 26 17.8
003B5D72 2019-04-10 01:37:00 20.7 26 17.8
003B5D72 2019-04-10 01:07:51 20.7 26 17.7
003B5D72 2019-04-10 00:38:43 20.7 26 17.8
003B5D72 2019-04-10 00:09:37 20.7 26 17.8
003B5D72 2019-04-09 23:40:29 20.7 26 17.8
003B5D72 2019-04-09 23:11:25 20.8 27 17.8
003B5D72 2019-04-09 22:42:12 20.8 27 18
003B5D72 2019-04-09 22:13:04 20.8 27 18
003B5D72 2019-04-09 21:14:48 20.8 27 18
003B5D72 2019-04-09 20:45:42 20.7 27 18.1
003B5D72 2019-04-09 20:16:32 20.7 27 18.1
003B5D72 2019-04-09 19:47:25 20.7 27 18.1
003B5D72 2019-04-09 19:18:18 20.7 27 18.1
003B5D72 2019-04-09 18:49:11 20.7 27 18.1
003B5D72 2019-04-09 18:20:05 20.8 27 18.2
003B5D72 2019-04-09 17:50:58 20.8 27 18
003B5D72 2019-04-09 17:21:52 20.8 27 18.1
003B5D72 2019-04-09 16:52:48 20.9 27 18.1
003B5D72 2019-04-09 16:23:40 20.8 27 18.2
003B5D72 2019-04-09 15:54:32 20.9 27 18.1
003B5D72 2019-04-09 15:25:20 20.9 26 14.1
003B5D72 2019-04-09 14:56:13 20.9 26 14.2
003B5D72 2019-04-09 13:28:46 20.9 26 14
003B5D72 2019-04-09 12:59:35 20.9 26 14.2
003B5D72 2019-04-09 12:30:23 20.9 26 14.2
003B5D72 2019-04-09 12:01:18 20.9 26 14.3
003B5D72 2019-04-09 11:32:06 20.9 26 14.5
003B5D72 2019-04-09 11:02:59 20.8 26 14.4
003B5D72 2019-04-09 10:33:52 20.8 26 14.6
003B5D72 2019-04-09 10:04:44 20.8 26 14.7
003B5D72 2019-04-09 09:35:36 20.8 26 18.4
003B5D72 2019-04-09 09:06:28 20.8 26 18.2
003B5D72 2019-04-09 08:36:39 20.7 25 18.3
003B5D72 2019-04-09 08:07:29 20.8 25 18.4
003B5D72 2019-04-09 07:38:18 20.8 25 18.3
003B5D72 2019-04-09 07:09:09 20.8 25 18.2
003B5D72 2019-04-09 06:40:02 20.8 25 18.3
003B5D72 2019-04-09 06:10:53 20.8 25 18.2
003B5D72 2019-04-09 05:41:46 20.8 25 18.5
003B5D72 2019-04-09 05:12:38 20.8 25 18.6
003B5D72 2019-04-09 04:43:30 20.8 25 18.6
003B5D72 2019-04-09 04:14:22 20.8 25 18.5
003B5D72 2019-04-09 03:45:14 20.8 25 18.6
003B5D72 2019-04-09 03:16:05 20.8 25 18.8
003B5D72 2019-04-09 02:17:48 20.9 25 18.9
003B5D72 2019-04-09 01:48:42 20.8 26 19
003B5D72 2019-04-09 01:19:33 20.9 26 19.1
003B5D72 2019-04-09 00:50:25 20.9 26 19.2
003B5D72 2019-04-09 00:21:19 20.9 26 19.2
003B5D72 2019-04-08 23:52:13 20.9 26 19.2
003B5D72 2019-04-08 23:23:05 20.9 26 20.8
003B5D72 2019-04-08 22:54:02 20.9 26 22
003B5D72 2019-04-08 22:24:53 20.9 26 22.1
003B5D72 2019-04-08 21:55:43 20.9 26 22
003B5D72 2019-04-08 21:26:35 20.9 26 20.8
003B5D72 2019-04-08 20:57:30 20.9 26 20.9
003B5D72 2019-04-08 20:28:20 20.9 26 20.9
003B5D72 2019-04-08 19:59:12 21 26 20.9
003B5D72 2019-04-08 19:30:05 20.9 26 20.9
003B5D72 2019-04-08 19:00:57 20.9 26 20.9
003B5D72 2019-04-08 18:31:49 20.9 26 20.9
003B5D72 2019-04-08 18:02:46 20.9 26 20.9
003B5D72 2019-04-08 17:33:37 20.9 26 20.7
003B5D72 2019-04-08 17:04:29 20.9 26 20.6
003B5D72 2019-04-08 16:35:23 21 26 20.7
003B5D72 2019-04-08 16:06:17 20.9 26 20.6
003B5D72 2019-04-08 15:37:14 21 26 20.6
003B5D72 2019-04-08 15:08:02 21 26 20.5
003B5D72 2019-04-08 14:38:56 21 26 20.5
003B5D72 2019-04-08 14:09:52 21 26 20.4
003B5D72 2019-04-08 13:40:41 21.1 26 20.3
003B5D72 2019-04-08 13:11:35 21 26 20.2
003B5D72 2019-04-08 12:42:28 20.9 26 20.3
003B5D72 2019-04-08 12:13:22 20.8 25 20.3
003B5D72 2019-04-08 11:44:16 20.7 25 20.3
003B5D72 2019-04-08 11:15:09 20.7 25 18.4
003B5D72 2019-04-08 10:46:03 20.7 25 14.6
003B5D72 2019-04-08 10:16:57 20.6 24 14.3
003B5D72 2019-04-08 09:47:50 20.6 24 14.4
003B5D72 2019-04-08 09:18:42 20.5 24 14.4
003B5D72 2019-04-08 08:49:36 20.5 24 13.8
003B5D72 2019-04-08 08:19:59 20.4 23 13.8
003B5D72 2019-04-08 07:50:51 20.4 23 14.3
003B5D72 2019-04-08 07:21:44 20.4 23 14.5
003B5D72 2019-04-08 06:52:36 20.4 23 14.5
003B5D72 2019-04-08 06:23:29 20.4 23 14.4
003B5D72 2019-04-08 05:54:24 20.5 23 14.5
003B5D72 2019-04-08 05:25:14 20.5 23 14.5
003B5D72 2019-04-08 04:56:04 20.5 23 14.4
003B5D72 2019-04-08 04:26:56 20.5 23 14.4
003B5D72 2019-04-08 03:57:47 20.5 23 14.5
003B5D72 2019-04-08 03:28:38 20.6 23 14.8
003B5D72 2019-04-08 02:59:30 20.6 23 14.9
003B5D72 2019-04-08 02:30:23 20.6 23 15
003B5D72 2019-04-08 02:01:15 20.6 23 15
003B5D72 2019-04-08 01:32:09 20.6 23 15
003B5D72 2019-04-08 01:03:02 20.6 23 15.1
003B5D72 2019-04-08 00:33:52 20.6 23 14.5
003B5D72 2019-04-08 00:04:44 20.7 23 14.6
003B5D72 2019-04-07 23:35:37 20.7 23 14.6
003B5D72 2019-04-07 23:06:30 20.7 22 14.6
003B5D72 2019-04-07 22:37:25 20.7 22 14.7
003B5D72 2019-04-07 22:08:13 20.8 22 14.8
003B5D72 2019-04-07 21:39:05 20.8 22 14.7
003B5D72 2019-04-07 21:10:00 20.9 22 14.8
003B5D72 2019-04-07 20:40:55 20.9 22 15
003B5D72 2019-04-07 20:11:45 21 22 15
003B5D72 2019-04-07 19:42:39 21 22 14
003B5D72 2019-04-07 19:13:32 21 22 13.8
003B5D72 2019-04-07 18:44:24 21 22 13.7
003B5D72 2019-04-07 18:15:18 21 22 13.7
003B5D72 2019-04-07 17:46:11 21 22 13.6
003B5D72 2019-04-07 17:17:04 21 22 13.8
003B5D72 2019-04-07 16:47:59 20.9 22 13.8
003B5D72 2019-04-07 16:18:50 20.9 22 13.7
003B5D72 2019-04-07 15:49:43 20.8 22 13.6
003B5D72 2019-04-07 15:20:37 20.7 22 13.2
003B5D72 2019-04-07 14:51:31 20.6 22 12.8
003B5D72 2019-04-07 14:22:23 20.6 21 12.7
003B5D72 2019-04-07 13:53:14 20.5 21 12.7
003B5D72 2019-04-07 13:24:07 20.6 21 12.6
003B5D72 2019-04-07 12:54:59 20.5 21 12.5
003B5D72 2019-04-07 12:25:52 20.5 21 12.5
003B5D72 2019-04-07 11:56:45 20.5 21 12
003B5D72 2019-04-07 11:27:38 20.5 21 12.1
003B5D72 2019-04-07 10:58:28 20.5 21 12.5
003B5D72 2019-04-07 10:29:20 20.5 21 12.3
003B5D72 2019-04-07 10:00:13 20.5 21 12.7
003B5D72 2019-04-07 09:31:04 20.5 21 12.7
003B5D72 2019-04-07 09:01:57 20.5 21 12.5
003B5D72 2019-04-07 08:32:49 20.5 21 12.1
003B5D72 2019-04-07 08:02:59 20.5 21 11.9
003B5D72 2019-04-07 07:33:55 20.6 21 12.2
003B5D72 2019-04-07 07:04:46 20.6 21 11.9
003B5D72 2019-04-07 06:35:42 20.6 21 12
003B5D72 2019-04-07 06:06:33 20.7 21 12.1
003B5D72 2019-04-07 05:37:28 20.7 21 12.3
003B5D72 2019-04-07 05:08:19 20.7 21 12.3
003B5D72 2019-04-07 04:39:12 20.8 21 12.3
003B5D72 2019-04-07 04:10:07 20.8 21 12.2
003B5D72 2019-04-07 03:40:59 20.8 21 12.4
003B5D72 2019-04-07 03:11:53 20.8 21 12.3
003B5D72 2019-04-07 02:42:46 20.9 21 12.3
003B5D72 2019-04-07 02:13:40 20.9 21 13.2
003B5D72 2019-04-07 01:44:35 21 21 12.9
003B5D72 2019-04-07 01:15:30 21 21 13.5
003B5D72 2019-04-07 00:46:22 21 21 14.5
003B5D72 2019-04-07 00:17:16 21 21 14.5
003B5D72 2019-04-06 23:48:10 21.1 21 14.3
003B5D72 2019-04-06 23:19:03 21.2 21 14.3
003B5D72 2019-04-06 22:49:58 21.2 21 14.4
003B5D72 2019-04-06 22:20:51 21.2 21 14.3
003B5D72 2019-04-06 21:51:45 21.3 21 14.8
003B5D72 2019-04-06 21:22:39 21.3 21 14.9
003B5D72 2019-04-06 20:53:34 21.3 21 14.9
003B5D72 2019-04-06 20:24:29 21.3 21 14.9
003B5D72 2019-04-06 19:55:23 21.3 21 14.9
003B5D72 2019-04-06 19:26:17 21.4 21 14.8
003B5D72 2019-04-06 18:57:13 21.4 21 14.8
003B5D72 2019-04-06 18:28:08 21.3 21 14.8
003B5D72 2019-04-06 17:59:02 21.3 21 14.8
003B5D72 2019-04-06 17:29:56 21.3 21 14.8
003B5D72 2019-04-06 17:00:50 21.2 21 15.1
003B5D72 2019-04-06 16:31:45 21.1 21 15.2
003B5D72 2019-04-06 16:02:37 21 21 15.2
003B5D72 2019-04-06 15:33:31 20.8 21 15.2
003B5D72 2019-04-06 15:04:24 20.8 21 15.4
003B5D72 2019-04-06 14:35:16 20.7 21 15
003B5D72 2019-04-06 14:06:09 20.7 21 15
003B5D72 2019-04-06 13:37:04 20.7 21 14.5
003B5D72 2019-04-06 13:07:57 20.6 21 13.3
003B5D72 2019-04-06 12:38:51 20.6 21 14
003B5D72 2019-04-06 12:09:45 20.6 20 14.1
003B5D72 2019-04-06 11:40:41 20.6 20 14
003B5D72 2019-04-06 11:11:34 20.6 20 13.9
003B5D72 2019-04-06 10:42:30 20.6 20 14
003B5D72 2019-04-06 10:13:25 20.6 20 13.9
003B5D72 2019-04-06 09:44:20 20.6 20 13.5
003B5D72 2019-04-06 09:15:14 20.6 20 13.5
003B5D72 2019-04-06 08:46:08 20.7 20 14
003B5D72 2019-04-06 08:17:02 20.7 20 14.2
003B5D72 2019-04-06 07:47:23 20.7 20 14.7
003B5D72 2019-04-06 07:18:15 20.7 20 14.7
003B5D72 2019-04-06 06:49:07 20.7 20 14.7
003B5D72 2019-04-06 06:20:00 20.8 20 15.3
003B5D72 2019-04-06 05:50:51 20.8 20 15.3
003B5D72 2019-04-06 05:21:43 20.8 20 15
003B5D72 2019-04-06 04:52:36 20.9 20 14.9
003B5D72 2019-04-06 04:23:27 20.9 20 14.9
003B5D72 2019-04-06 03:54:19 21 20 14.9
003B5D72 2019-04-06 03:25:12 21 20 14.7
003B5D72 2019-04-06 02:56:05 21.1 20 14.7
003B5D72 2019-04-06 02:26:59 21.1 20 14.8
003B5D72 2019-04-06 01:57:54 21.2 20 14.8
003B5D72 2019-04-06 01:28:46 21.2 20 14.7
003B5D72 2019-04-06 00:59:38 21.3 20 14
003B5D72 2019-04-06 00:30:33 21.3 20 13.9
003B5D72 2019-04-06 00:01:27 21.4 19 14.7
003B5D72 2019-04-05 23:32:24 21.5 19 14.8
003B5D72 2019-04-05 23:03:15 21.6 19 14.8
003B5D72 2019-04-05 22:34:08 21.7 19 15.1
003B5D72 2019-04-05 22:05:02 21.8 19 15
003B5D72 2019-04-05 21:35:59 21.9 19 15.3
003B5D72 2019-04-05 21:06:51 21.9 19 15
003B5D72 2019-04-05 20:37:48 21.9 19 14.9
003B5D72 2019-04-05 20:08:44 21.9 19 14.9
003B5D72 2019-04-05 19:39:40 22 19 14.7
003B5D72 2019-04-05 19:10:33 21.9 19 14.7
003B5D72 2019-04-05 18:41:29 21.7 19 14.8
003B5D72 2019-04-05 18:12:23 21.7 19 14.4
003B5D72 2019-04-05 17:43:17 21.7 19 14.9
003B5D72 2019-04-05 17:14:10 21.7 20 14.9
003B5D72 2019-04-05 16:45:01 21.7 20 15.3
003B5D72 2019-04-05 16:15:54 21.7 21 15.7
003B5D72 2019-04-05 15:46:46 21.6 21 15.7
003B5D72 2019-04-05 15:17:42 21.5 21 15.7
003B5D72 2019-04-05 14:48:30 21.5 22 15.6
003B5D72 2019-04-05 14:19:24 21.4 21 16.1
003B5D72 2019-04-05 13:50:16 21.3 21 16.3
003B5D72 2019-04-05 13:21:08 21.3 21 16.3
003B5D72 2019-04-05 12:52:04 21.3 22 16.3
003B5D72 2019-04-05 12:22:52 21.3 22 16.6
003B5D72 2019-04-05 11:53:48 21.3 22 16.1
003B5D72 2019-04-05 11:24:37 21.3 22 16.1
003B5D72 2019-04-05 10:55:30 21.2 21 16
003B5D72 2019-04-05 10:26:24 21.2 21 15.8
003B5D72 2019-04-05 09:57:18 21.1 20 15.8
003B5D72 2019-04-05 09:28:09 21.1 20 15.6
003B5D72 2019-04-05 08:59:02 21 19 15.5
003B5D72 2019-04-05 08:29:56 21 19 15.5
003B5D72 2019-04-05 08:00:49 21 19 15.5
003B5D72 2019-04-05 07:31:08 21.1 19 15.2
003B5D72 2019-04-05 07:01:59 21.1 19 15.2
003B5D72 2019-04-05 06:32:53 21.1 19 15.2
003B5D72 2019-04-05 06:03:46 21.1 19 14.9
003B5D72 2019-04-05 05:34:40 21.1 19 14.4
003B5D72 2019-04-05 05:05:30 21.2 19 14.5
003B5D72 2019-04-05 04:36:23 21.2 19 14.6
003B5D72 2019-04-05 04:07:15 21.2 19 14.6
003B5D72 2019-04-05 03:38:07 21.3 19 15.1
003B5D72 2019-04-05 03:09:01 21.3 19 15.2
003B5D72 2019-04-05 02:39:54 21.3 19 14.6
003B5D72 2019-04-05 02:10:48 21.4 19 14.2
003B5D72 2019-04-05 01:41:44 21.4 19 14.2
003B5D72 2019-04-05 01:12:34 21.4 19 14.8
003B5D72 2019-04-05 00:43:28 21.4 19 14.6
003B5D72 2019-04-05 00:14:19 21.5 19 14.7
003B5D72 2019-04-04 23:45:11 21.5 19 14.6
003B5D72 2019-04-04 23:16:02 21.5 19 14.7
003B5D72 2019-04-04 22:46:55 21.6 19 14.7
003B5D72 2019-04-04 22:17:51 21.6 18 14.8
003B5D72 2019-04-04 21:48:42 21.6 18 14.7
003B5D72 2019-04-04 21:19:35 21.6 18 14.9
003B5D72 2019-04-04 20:50:28 21.6 18 15.3
003B5D72 2019-04-04 20:21:17 21.6 18 15.4
003B5D72 2019-04-04 19:52:10 21.6 18 16.1
003B5D72 2019-04-04 19:23:01 21.5 18 16.3
003B5D72 2019-04-04 18:53:51 21.5 18 16.3
003B5D72 2019-04-04 18:24:43 21.5 18 16.9
003B5D72 2019-04-04 17:55:35 21.6 18 17
003B5D72 2019-04-04 17:26:27 21.6 19 17.4
003B5D72 2019-04-04 16:57:20 21.6 19 17.1
003B5D72 2019-04-04 16:28:13 21.6 19 17
003B5D72 2019-04-04 15:59:04 21.5 19 17.2
003B5D72 2019-04-04 15:29:56 21.4 20 17.2
003B5D72 2019-04-04 14:02:32 21.2 20 17.2
003B5D72 2019-04-04 13:33:22 21.2 20 17.2
003B5D72 2019-04-04 13:04:15 21.2 20 17.4
003B5D72 2019-04-04 12:35:04 21.1 20 17.4
003B5D72 2019-04-04 12:05:55 21.1 20 17.4
003B5D72 2019-04-04 11:36:45 21.1 20 17.6
003B5D72 2019-04-04 11:07:37 21.1 20 17.6
003B5D72 2019-04-04 10:38:28 21 20 17.6
003B5D72 2019-04-04 10:09:19 21 20 17.9
003B5D72 2019-04-04 09:40:11 21 20 18
003B5D72 2019-04-04 09:11:03 21 20 18
003B5D72 2019-04-04 08:41:55 21 20 18
003B5D72 2019-04-04 08:12:48 21 20 18.3
003B5D72 2019-04-04 07:43:41 21.1 20 18.3
003B5D72 2019-04-04 07:14:01 21.1 20 18.3
003B5D72 2019-04-04 06:44:54 21.1 20 18.1
003B5D72 2019-04-04 06:15:46 21.1 20 18
003B5D72 2019-04-04 05:46:38 21.1 20 18
003B5D72 2019-04-04 05:17:31 21.2 20 18
003B5D72 2019-04-04 04:48:24 21.2 20 18
003B5D72 2019-04-04 04:19:13 21.2 20 17.7
003B5D72 2019-04-04 03:50:03 21.2 20 17.8
003B5D72 2019-04-04 03:20:55 21.3 20 17.7
003B5D72 2019-04-04 02:51:46 21.3 20 17.2
003B5D72 2019-04-04 02:22:38 21.4 20 17.3
003B5D72 2019-04-04 01:53:26 21.4 20 19.7
003B5D72 2019-04-04 01:24:18 21.4 20 19.7
003B5D72 2019-04-04 00:55:09 21.4 19 19.7
003B5D72 2019-04-04 00:26:02 21.5 19 19.7
003B5D72 2019-04-03 23:56:58 21.5 19 19.5
003B5D72 2019-04-03 23:27:47 21.6 19 19.3
003B5D72 2019-04-03 22:58:39 21.6 19 19.3
003B5D72 2019-04-03 22:29:33 21.7 19 19.3
003B5D72 2019-04-03 22:00:26 21.7 19 19.1
003B5D72 2019-04-03 21:31:20 21.7 19 19.3
003B5D72 2019-04-03 21:02:12 21.7 19 19.4
003B5D72 2019-04-03 20:33:05 21.8 19 20.9
003B5D72 2019-04-03 20:03:57 21.8 19 20.8
003B5D72 2019-04-03 19:34:48 21.7 19 20.7
003B5D72 2019-04-03 19:05:41 21.7 19 20.6
003B5D72 2019-04-03 18:36:35 21.7 19 20.6
003B5D72 2019-04-03 18:07:27 21.8 19 20.7
003B5D72 2019-04-03 17:38:19 21.9 20 20.5
003B5D72 2019-04-03 17:09:09 21.9 20 20.5
003B5D72 2019-04-03 16:40:01 21.9 20 21.8
003B5D72 2019-04-03 16:10:52 21.8 21 21.7
003B5D72 2019-04-03 15:41:43 21.7 21 21.8
003B5D72 2019-04-03 15:12:33 21.5 21 21.8
003B5D72 2019-04-03 14:43:27 21.4 21 21.7
003B5D72 2019-04-03 14:14:13 21.3 21 20.4
003B5D72 2019-04-03 13:45:05 21.3 21 20.5
003B5D72 2019-04-03 13:15:56 21.2 21 20.5
003B5D72 2019-04-03 12:46:50 21.2 20 20.5
003B5D72 2019-04-03 12:17:46 21.2 21 20.5
003B5D72 2019-04-03 11:48:34 21.2 21 20.5
003B5D72 2019-04-03 11:19:30 21.1 21 20.6
003B5D72 2019-04-03 10:50:19 21.1 21 20.6
003B5D72 2019-04-03 10:21:10 21.1 21 20.6
003B5D72 2019-04-03 09:52:02 21 20 20.4
003B5D72 2019-04-03 09:22:53 20.9 20 20.4
003B5D72 2019-04-03 08:53:46 20.8 20 20.4
003B5D72 2019-04-03 08:24:39 20.8 20 18.5
003B5D72 2019-04-03 07:55:31 20.9 20 18.5
003B5D72 2019-04-03 07:26:23 20.9 20 18.5
003B5D72 2019-04-03 06:56:43 20.9 20 18.5
003B5D72 2019-04-03 06:27:36 20.9 20 18.5
003B5D72 2019-04-03 05:58:29 20.9 19 18.5
003B5D72 2019-04-03 05:29:23 20.9 19 18.5
003B5D72 2019-04-03 05:00:15 20.9 19 18.5
003B5D72 2019-04-03 04:31:07 20.9 19 15
003B5D72 2019-04-03 04:01:59 21 19 14.9
003B5D72 2019-04-03 03:32:53 21 19 14.8
003B5D72 2019-04-03 03:03:44 21 19 14.9
003B5D72 2019-04-03 02:34:36 21 19 14.9
003B5D72 2019-04-03 02:05:29 21.1 19 14.9
003B5D72 2019-04-03 01:36:25 21.1 19 14.8
003B5D72 2019-04-03 01:07:16 21.2 19 15.1
003B5D72 2019-04-03 00:38:09 21.2 19 15
003B5D72 2019-04-03 00:09:06 21.2 19 15.5
003B5D72 2019-04-02 23:39:57 21.3 19 15.5
003B5D72 2019-04-02 23:10:51 21.3 19 15.3
003B5D72 2019-04-02 22:41:46 21.3 18 18.6
003B5D72 2019-04-02 22:12:41 21.3 18 19
003B5D72 2019-04-02 21:43:37 21.4 18 18.8
003B5D72 2019-04-02 21:14:31 21.4 18 18.9
003B5D72 2019-04-02 20:45:27 21.4 18 18.9
003B5D72 2019-04-02 20:16:21 21.4 18 18.9
003B5D72 2019-04-02 19:47:16 21.4 18 18.9
003B5D72 2019-04-02 19:18:13 21.4 18 18.8
003B5D72 2019-04-02 18:49:04 21.4 18 18.9
003B5D72 2019-04-02 18:19:58 21.4 18 18.9
003B5D72 2019-04-02 17:50:53 21.5 18 18.9
003B5D72 2019-04-02 17:21:43 21.5 19 18.8
003B5D72 2019-04-02 16:52:41 21.6 19 18.8
003B5D72 2019-04-02 16:23:32 21.6 20 18.8
003B5D72 2019-04-02 15:54:27 21.5 21 18.8
003B5D72 2019-04-02 15:25:21 21.4 22 18.8
003B5D72 2019-04-02 14:56:15 21.3 22 19
003B5D72 2019-04-02 14:27:12 21.2 22 18.9
003B5D72 2019-04-02 13:58:08 21 22 18.9
003B5D72 2019-04-02 13:29:05 20.9 22 18.9
003B5D72 2019-04-02 13:00:02 20.9 22 18.9
003B5D72 2019-04-02 12:30:54 20.9 22 18.9
003B5D72 2019-04-02 12:01:51 20.9 22 18.5
003B5D72 2019-04-02 11:32:42 20.9 22 18.5
003B5D72 2019-04-02 11:03:36 20.9 22 18.6
003B5D72 2019-04-02 10:34:31 20.8 21 15.2
003B5D72 2019-04-02 10:05:27 20.8 21 14.1
003B5D72 2019-04-02 09:36:18 20.8 21 14.1
003B5D72 2019-04-02 09:07:15 20.8 20 13.7
003B5D72 2019-04-02 08:38:06 20.8 20 13.5
003B5D72 2019-04-02 08:08:59 20.7 20 13.5
003B5D72 2019-04-02 07:39:56 20.8 19 13.6
003B5D72 2019-04-02 07:10:48 20.8 19 13.7
003B5D72 2019-04-02 06:41:09 20.8 19 13.9
003B5D72 2019-04-02 06:12:03 20.8 19 13.9
003B5D72 2019-04-02 05:42:59 20.8 19 14.3
003B5D72 2019-04-02 05:13:53 20.8 19 14.2
003B5D72 2019-04-02 04:44:44 20.8 19 14.1
003B5D72 2019-04-02 04:15:39 20.8 19 14.4
003B5D72 2019-04-02 03:46:32 20.8 19 14.4
003B5D72 2019-04-02 03:17:25 20.9 18 14.2
003B5D72 2019-04-02 02:48:20 20.9 18 13.9
003B5D72 2019-04-02 02:19:14 20.9 18 15
003B5D72 2019-04-02 01:50:11 21 18 15
003B5D72 2019-04-02 01:21:05 21 18 14.7
003B5D72 2019-04-02 00:51:58 21 18 14.7
003B5D72 2019-04-02 00:22:50 21.1 18 18.4
003B5D72 2019-04-01 23:53:43 21.1 17 18.6
003B5D72 2019-04-01 23:24:37 21.1 17 18.6
003B5D72 2019-04-01 22:55:32 21.2 17 18.5
003B5D72 2019-04-01 22:26:28 21.2 17 18.7
003B5D72 2019-04-01 21:57:23 21.2 17 18.7
003B5D72 2019-04-01 21:28:17 21.2 17 18.9
003B5D72 2019-04-01 20:59:12 21.3 17 18.9
003B5D72 2019-04-01 20:30:07 21.3 17 18.9
003B5D72 2019-04-01 20:01:02 21.2 17 18.8
003B5D72 2019-04-01 19:31:59 21.2 17 19
003B5D72 2019-04-01 19:02:52 21.2 17 19
003B5D72 2019-04-01 18:33:47 21.2 17 19.1
003B5D72 2019-04-01 18:04:42 21.2 17 19
003B5D72 2019-04-01 17:35:37 21.3 17 19
003B5D72 2019-04-01 17:06:30 21.3 18 19
003B5D72 2019-04-01 16:37:28 21.2 18 19.1
003B5D72 2019-04-01 16:08:20 21.1 18 19
003B5D72 2019-04-01 15:39:12 20.9 19 19
003B5D72 2019-04-01 15:10:07 20.8 19 19.3
003B5D72 2019-04-01 14:40:57 20.7 20 19.2
003B5D72 2019-04-01 14:11:52 20.7 20 18.9
003B5D72 2019-04-01 13:42:42 20.7 20 19
003B5D72 2019-04-01 13:13:35 20.6 21 19
003B5D72 2019-04-01 12:44:31 20.6 21 19
003B5D72 2019-04-01 12:15:21 20.6 21 16.4
003B5D72 2019-04-01 11:46:13 20.6 22 16.1
003B5D72 2019-04-01 11:17:07 20.6 22 16.3
003B5D72 2019-04-01 10:47:57 20.6 22 16.5
003B5D72 2019-04-01 10:18:50 20.6 22 16.3
003B5D72 2019-04-01 09:49:43 20.6 22 16.3
003B5D72 2019-04-01 08:51:32 20.6 22 16
003B5D72 2019-04-01 08:22:20 20.5 23 16.1
003B5D72 2019-04-01 07:53:14 20.5 23 16.4
003B5D72 2019-04-01 07:24:06 20.5 23 16.4
003B5D72 2019-04-01 06:55:00 20.6 23 16.5
003B5D72 2019-04-01 06:25:21 20.5 23 16.2
003B5D72 2019-04-01 05:56:15 20.6 23 16.8
003B5D72 2019-04-01 05:27:10 20.6 23 16.9
003B5D72 2019-04-01 04:58:04 20.6 23 17.4
003B5D72 2019-04-01 04:28:58 20.6 23 17.4
003B5D72 2019-04-01 03:59:53 20.6 24 17.5
003B5D72 2019-04-01 03:30:48 20.6 24 19.8
003B5D72 2019-04-01 03:01:42 20.6 24 19.6
003B5D72 2019-04-01 02:32:36 20.6 24 19.7
003B5D72 2019-04-01 02:03:30 20.6 24 19.7
003B5D72 2019-04-01 01:34:25 20.6 24 19.6
003B5D72 2019-04-01 01:05:20 20.6 24 19.8
003B5D72 2019-04-01 00:36:15 20.7 24 19.8
003B5D72 2019-04-01 00:07:10 20.7 25 19.6
003B5D72 2019-03-31 23:38:03 20.7 25 19.9
003B5D72 2019-03-31 23:08:56 20.8 25 20
003B5D72 2019-03-31 22:39:50 20.8 25 20
003B5D72 2019-03-31 22:10:43 20.8 26 20.1
003B5D72 2019-03-31 21:41:36 20.9 26 20.3
003B5D72 2019-03-31 21:12:29 20.9 26 20.3
003B5D72 2019-03-31 20:43:22 20.9 27 20.5
003B5D72 2019-03-31 20:14:14 20.9 27 20.4
003B5D72 2019-03-31 19:45:08 20.9 27 20.5
003B5D72 2019-03-31 19:16:00 20.9 27 20.5
003B5D72 2019-03-31 18:46:52 20.9 27 20.6
003B5D72 2019-03-31 18:17:44 20.8 27 20.7
003B5D72 2019-03-31 17:48:37 20.8 28 20.6
003B5D72 2019-03-31 17:19:30 20.7 28 20.5
003B5D72 2019-03-31 16:50:23 20.7 27 20.3
003B5D72 2019-03-31 16:21:15 20.7 27 20.3
003B5D72 2019-03-31 15:52:08 20.7 27 21.6
003B5D72 2019-03-31 15:23:01 20.7 27 20.3
003B5D72 2019-03-31 14:53:53 20.7 27 20.2
003B5D72 2019-03-31 14:24:46 20.7 27 20.2
003B5D72 2019-03-31 13:55:40 20.7 27 20.2
003B5D72 2019-03-31 13:26:34 20.7 27 20.2
003B5D72 2019-03-31 12:57:28 20.7 27 20
003B5D72 2019-03-31 12:28:25 20.7 27 20
003B5D72 2019-03-31 11:59:14 20.7 27 20
003B5D72 2019-03-31 11:30:09 20.7 27 19.7
003B5D72 2019-03-31 11:01:02 20.7 27 19.5
003B5D72 2019-03-31 10:31:55 20.6 27 19.5
003B5D72 2019-03-31 10:02:50 20.6 27 19.3
003B5D72 2019-03-31 09:33:45 20.6 27 19.1
003B5D72 2019-03-31 09:04:40 20.6 28 19
003B5D72 2019-03-31 08:35:35 20.6 28 18.7
003B5D72 2019-03-31 08:06:28 20.7 28 18.7
003B5D72 2019-03-31 07:37:23 20.7 28 18.6
003B5D72 2019-03-31 07:08:18 20.7 28 18.3
003B5D72 2019-03-31 06:39:12 20.7 28 18.2
003B5D72 2019-03-31 06:09:34 20.7 28 17.9
003B5D72 2019-03-31 05:40:29 20.7 28 17.8
003B5D72 2019-03-31 05:11:22 20.7 28 17.8
003B5D72 2019-03-31 04:42:17 20.7 28 17.8
003B5D72 2019-03-31 04:13:11 20.7 28 13.2
003B5D72 2019-03-31 02:44:05 20.7 28 13.1
003B5D72 2019-03-31 01:45:54 20.7 27 13.1
003B5D72 2019-03-31 01:16:50 20.7 27 13.1
003B5D72 2019-03-31 00:47:42 20.7 27 13.3
003B5D72 2019-03-31 00:18:38 20.8 27 13.3
003B5D72 2019-03-30 23:49:33 20.8 27 13.4
003B5D72 2019-03-30 23:20:28 20.8 27 13.8
003B5D72 2019-03-30 22:51:20 20.8 27 13.9
003B5D72 2019-03-30 22:22:16 20.8 27 14
003B5D72 2019-03-30 21:53:10 20.8 27 14
003B5D72 2019-03-30 21:24:02 20.9 27 13.9
003B5D72 2019-03-30 20:54:56 20.9 27 18.1
003B5D72 2019-03-30 20:25:49 20.9 27 18.2
003B5D72 2019-03-30 19:56:43 21 27 18.2
003B5D72 2019-03-30 19:27:38 21 27 18.3
003B5D72 2019-03-30 18:58:32 21 27 18.2
003B5D72 2019-03-30 18:29:25 21 27 18.2
003B5D72 2019-03-30 18:00:18 21.1 27 18.2
003B5D72 2019-03-30 17:31:13 21 27 18.2
003B5D72 2019-03-30 17:02:06 21.1 27 18.1
003B5D72 2019-03-30 16:33:02 21.1 27 18.1
003B5D72 2019-03-30 16:03:54 21.1 27 18.1
003B5D72 2019-03-30 15:34:49 21.1 27 18
003B5D72 2019-03-30 15:05:43 21 27 18
003B5D72 2019-03-30 14:36:38 20.9 27 18
003B5D72 2019-03-30 14:07:32 20.9 27 18.1
003B5D72 2019-03-30 13:38:30 20.9 27 18.1
003B5D72 2019-03-30 13:09:23 20.9 27 18.1
003B5D72 2019-03-30 12:40:18 20.9 27 18
003B5D72 2019-03-30 12:11:12 20.9 27 18
003B5D72 2019-03-30 11:42:07 20.8 27 18.2
003B5D72 2019-03-30 11:12:59 20.8 27 18.1
003B5D72 2019-03-30 10:43:53 20.8 27 18.2
003B5D72 2019-03-30 10:14:45 20.8 27 18.2
003B5D72 2019-03-30 09:45:39 20.7 27 18.2
003B5D72 2019-03-30 09:16:33 20.7 27 18.1
003B5D72 2019-03-30 08:47:27 20.7 27 14.1
003B5D72 2019-03-30 08:18:20 20.7 27 13.6
003B5D72 2019-03-30 07:49:13 20.7 27 13.7
003B5D72 2019-03-30 07:20:07 20.8 27 13.6
003B5D72 2019-03-30 06:50:58 20.8 27 14.3
003B5D72 2019-03-30 06:21:52 20.8 27 14.3
003B5D72 2019-03-30 05:52:41 20.8 27 14.3
003B5D72 2019-03-30 05:23:34 20.8 27 14.4
003B5D72 2019-03-30 04:53:43 20.8 27 14.3
003B5D72 2019-03-30 04:24:34 20.8 28 14.3
003B5D72 2019-03-30 03:55:25 20.8 28 14.5
003B5D72 2019-03-30 03:26:15 20.8 28 15.2
003B5D72 2019-03-30 02:57:09 20.9 28 15.1
003B5D72 2019-03-30 02:28:00 20.9 28 15.3
003B5D72 2019-03-30 01:58:55 20.9 28 15.1
003B5D72 2019-03-30 01:29:47 20.9 28 15.1
003B5D72 2019-03-30 01:00:39 20.9 28 15.4
003B5D72 2019-03-30 00:31:31 21 28 15.2
003B5D72 2019-03-30 00:02:24 21 28 15.6
003B5D72 2019-03-29 23:33:21 21 28 15.4
003B5D72 2019-03-29 23:04:10 21 28 15.6
003B5D72 2019-03-29 22:05:56 21.1 28 15.5
003B5D72 2019-03-29 21:36:51 21.1 28 15.7
003B5D72 2019-03-29 21:07:45 21.1 28 15.7
003B5D72 2019-03-29 20:38:39 21.1 28 15.8
003B5D72 2019-03-29 20:09:30 21.1 28 16
003B5D72 2019-03-29 19:40:25 21 28 16.2
003B5D72 2019-03-29 19:11:18 21 28 16.2
003B5D72 2019-03-29 18:42:09 21 28 16.3
003B5D72 2019-03-29 18:13:03 21.1 28 15.9
003B5D72 2019-03-29 17:43:58 21.1 28 16.5
003B5D72 2019-03-29 17:14:49 21.1 28 16.5
003B5D72 2019-03-29 16:45:43 21.1 28 16.5
003B5D72 2019-03-29 16:16:36 21.2 28 16.4
003B5D72 2019-03-29 15:47:30 21.1 28 16.3
003B5D72 2019-03-29 14:49:14 21.1 28 16.4
003B5D72 2019-03-29 14:20:09 21.1 28 15.8
003B5D72 2019-03-29 13:50:59 21.2 28 15.9
003B5D72 2019-03-29 13:21:52 21.1 27 18.9
003B5D72 2019-03-29 12:52:47 21 27 18.8
003B5D72 2019-03-29 11:54:30 21 27 18.8
003B5D72 2019-03-29 11:25:23 21 27 18.7
003B5D72 2019-03-29 10:56:15 21 27 18.7
003B5D72 2019-03-29 10:27:10 21 27 18.4
003B5D72 2019-03-29 09:58:01 21 27 18.4
003B5D72 2019-03-29 08:59:45 20.9 26 20.2
003B5D72 2019-03-29 08:30:39 20.9 25 21.6
003B5D72 2019-03-29 08:01:34 20.8 25 21.6
003B5D72 2019-03-29 07:32:29 20.8 25 21.6
003B5D72 2019-03-29 07:03:25 20.8 25 21.7
003B5D72 2019-03-29 06:34:16 20.8 25 21.9
003B5D72 2019-03-29 06:05:10 20.8 25 21.9
003B5D72 2019-03-29 05:36:06 20.8 25 21.9
003B5D72 2019-03-29 05:06:58 20.9 25 21.9
003B5D72 2019-03-29 04:37:19 20.9 25 21.7
003B5D72 2019-03-29 04:08:13 20.9 25 21.7
003B5D72 2019-03-29 03:39:06 21 25 21.7
003B5D72 2019-03-29 03:09:58 21 25 21.7
003B5D72 2019-03-29 02:40:51 21.1 25 21.8
003B5D72 2019-03-29 02:11:44 21.1 25 21.7
003B5D72 2019-03-29 01:42:37 21.1 25 21.7
003B5D72 2019-03-29 01:13:29 21.1 25 21.7
003B5D72 2019-03-29 00:44:23 21.1 25 20.4
003B5D72 2019-03-29 00:15:18 21.1 25 20.4
003B5D72 2019-03-28 23:46:13 21.1 24 20.4
003B5D72 2019-03-28 23:17:06 21.1 24 20.5
003B5D72 2019-03-28 22:48:02 21.1 24 20.5
003B5D72 2019-03-28 22:18:53 21.2 24 20.5
003B5D72 2019-03-28 21:49:48 21.2 24 20.5
003B5D72 2019-03-28 21:20:42 21.2 24 18.6
003B5D72 2019-03-28 20:51:36 21.3 24 15.1
003B5D72 2019-03-28 20:22:31 21.2 24 15
003B5D72 2019-03-28 19:53:25 21.2 24 15
003B5D72 2019-03-28 19:24:23 21.2 24 14.9
003B5D72 2019-03-28 18:55:13 21.2 24 14.4
003B5D72 2019-03-28 18:26:07 21.2 24 12.7
003B5D72 2019-03-28 17:57:01 21.2 24 17.4
003B5D72 2019-03-28 17:27:55 21.3 24 17.4
003B5D72 2019-03-28 16:58:50 21.3 24 17.4
003B5D72 2019-03-28 16:29:44 21.2 23 17.4
003B5D72 2019-03-28 16:00:37 21.2 23 17.4
003B5D72 2019-03-28 15:31:30 21.2 23 17.5
003B5D72 2019-03-28 15:02:24 21.2 23 17.6
003B5D72 2019-03-28 14:33:18 21.1 23 17.5
003B5D72 2019-03-28 14:04:11 21.1 22 17.6
003B5D72 2019-03-28 13:35:04 21.1 22 17.7
003B5D72 2019-03-28 12:36:51 21 21 17.8
003B5D72 2019-03-28 12:07:46 21 21 17.8
003B5D72 2019-03-28 10:40:21 20.9 20 17.6
003B5D72 2019-03-28 10:11:13 20.9 20 17.6
003B5D72 2019-03-28 09:42:08 20.9 20 17.5
003B5D72 2019-03-28 09:13:01 20.9 20 17.5
003B5D72 2019-03-28 08:43:56 20.9 19 17.5
003B5D72 2019-03-28 08:14:50 20.8 19 17.6
003B5D72 2019-03-28 07:45:43 20.8 19 17.6
003B5D72 2019-03-28 07:16:37 20.8 19 17.6
003B5D72 2019-03-28 06:47:33 20.8 19 17.8
003B5D72 2019-03-28 06:18:29 20.8 19 17.8
003B5D72 2019-03-28 05:49:20 20.8 19 17.9
003B5D72 2019-03-28 04:21:36 20.8 18 20.1
003B5D72 2019-03-28 03:52:30 20.8 18 21.5
003B5D72 2019-03-28 03:23:21 20.8 18 21.5
003B5D72 2019-03-28 02:54:16 20.8 18 22.6
003B5D72 2019-03-28 02:25:12 20.8 18 22.6
003B5D72 2019-03-28 01:56:07 20.9 18 22.6
003B5D72 2019-03-28 00:57:52 20.9 17 22.6
003B5D72 2019-03-27 23:59:37 21 17 22.5
003B5D72 2019-03-27 23:30:31 21 17 22.6
003B5D72 2019-03-27 23:01:25 21 16 22.6
003B5D72 2019-03-27 22:32:21 21 16 22.5
003B5D72 2019-03-27 22:03:12 21.1 16 22.6
003B5D72 2019-03-27 21:34:08 21.1 16 22.6
003B5D72 2019-03-27 21:04:58 21.1 16 22.6
003B5D72 2019-03-27 20:35:53 21.1 16 22.6
003B5D72 2019-03-27 20:06:42 21.2 16 22.6
003B5D72 2019-03-27 18:10:16 21.3 16 22.6
003B5D72 2019-03-27 17:41:09 21.3 16 22.7
003B5D72 2019-03-27 17:12:04 21.3 16 22.7
003B5D72 2019-03-27 16:43:02 21.3 16 22.7
003B5D72 2019-03-27 16:13:57 21.4 16 22.7
003B5D72 2019-03-27 15:44:50 21.4 16 22.7
003B5D72 2019-03-27 15:15:49 21.3 16 22.7
003B5D72 2019-03-27 14:46:43 21.2 16 22.7
003B5D72 2019-03-27 13:48:27 21 16 22.6
003B5D72 2019-03-27 12:21:11 20.9 15 21.6
003B5D72 2019-03-27 11:52:05 20.8 15 20.2
003B5D72 2019-03-27 11:22:59 20.8 15 18.3
003B5D72 2019-03-27 10:53:52 20.8 15 14.4
003B5D72 2019-03-27 10:24:45 20.7 15 14.4
003B5D72 2019-03-27 09:55:40 20.7 14 14.4
003B5D72 2019-03-27 09:26:32 20.7 14 14.5
003B5D72 2019-03-27 08:57:23 20.7 14 14.6
003B5D72 2019-03-27 08:28:16 20.7 14 14.3
003B5D72 2019-03-27 07:59:07 20.7 14 14.6
003B5D72 2019-03-27 07:30:01 20.7 14 14.7
003B5D72 2019-03-27 07:00:52 20.7 14 14.2
003B5D72 2019-03-27 06:31:44 20.7 14 14.2
003B5D72 2019-03-27 06:02:36 20.7 14 14.2
003B5D72 2019-03-27 05:33:28 20.7 14 14.2
003B5D72 2019-03-27 05:04:21 20.7 14 14.2
003B5D72 2019-03-27 04:35:13 20.7 14 14
003B5D72 2019-03-27 04:05:33 20.7 14 14.4
003B5D72 2019-03-27 03:36:26 20.7 14 14.7
003B5D72 2019-03-27 03:07:20 20.7 14 14.6
003B5D72 2019-03-27 02:38:14 20.8 14 15.1
003B5D72 2019-03-27 02:09:10 20.8 14 14.8
003B5D72 2019-03-27 01:40:02 20.8 14 15.2
003B5D72 2019-03-27 01:10:57 20.9 14 15.6
003B5D72 2019-03-27 00:41:51 20.9 14 15.6
003B5D72 2019-03-27 00:12:43 20.9 14 15.5
003B5D72 2019-03-26 23:43:36 20.9 14 15.3
003B5D72 2019-03-26 23:14:31 21 14 15.6
003B5D72 2019-03-26 22:45:25 21 14 15.5
003B5D72 2019-03-26 22:16:16 21.1 14 15.9
003B5D72 2019-03-26 21:47:10 21.1 14 15.8
003B5D72 2019-03-26 21:18:04 21.1 14 15.7
003B5D72 2019-03-26 20:48:58 21.2 14 15.8
003B5D72 2019-03-26 20:19:55 21.2 14 15.6
003B5D72 2019-03-26 19:50:47 21.2 14 15.5
003B5D72 2019-03-26 19:21:42 21.2 14 15.6
003B5D72 2019-03-26 18:52:37 21.2 14 15.8
003B5D72 2019-03-26 18:23:29 21.3 14 15.8
003B5D72 2019-03-26 17:54:24 21.3 14 15.9
003B5D72 2019-03-26 17:25:21 21.4 14 16.3
003B5D72 2019-03-26 16:56:14 21.4 14 16.3
003B5D72 2019-03-26 16:27:08 21.4 14 16.4
003B5D72 2019-03-26 15:58:02 21.4 15 16.1
003B5D72 2019-03-26 15:28:56 21.3 15 15.8
003B5D72 2019-03-26 14:59:49 21.2 15 16.1
003B5D72 2019-03-26 14:30:44 21 16 15.8
003B5D72 2019-03-26 14:01:39 20.9 16 15.7
003B5D72 2019-03-26 13:32:37 20.9 16 15.6
003B5D72 2019-03-26 13:03:27 20.7 16 15.3
003B5D72 2019-03-26 12:34:20 20.7 16 15.7
003B5D72 2019-03-26 12:05:14 20.6 17 15.7
003B5D72 2019-03-26 11:36:07 20.6 17 15.8
003B5D72 2019-03-26 11:07:00 20.6 17 15.6
003B5D72 2019-03-26 10:37:53 20.6 18 15.7
003B5D72 2019-03-26 10:08:46 20.6 18 15.4
003B5D72 2019-03-26 09:39:39 20.6 18 15.4
003B5D72 2019-03-26 09:10:37 20.6 19 15.5
003B5D72 2019-03-26 08:41:26 20.6 19 15.5
003B5D72 2019-03-26 08:12:22 20.6 20 15.7
003B5D72 2019-03-26 07:43:14 20.6 20 15.6
003B5D72 2019-03-26 07:14:09 20.6 20 15.7
003B5D72 2019-03-26 06:45:03 20.6 20 15.6
003B5D72 2019-03-26 06:15:55 20.6 20 15.6
003B5D72 2019-03-26 05:46:49 20.6 20 15.6
003B5D72 2019-03-26 05:17:42 20.6 20 15.1
003B5D72 2019-03-26 04:48:35 20.7 20 15.2
003B5D72 2019-03-26 04:19:28 20.7 20 15.2
003B5D72 2019-03-26 03:49:51 20.6 20 14.7
003B5D72 2019-03-26 03:20:42 20.6 20 14.3
003B5D72 2019-03-26 02:51:36 20.7 20 14.3
003B5D72 2019-03-26 02:22:29 20.7 20 14.3
003B5D72 2019-03-26 01:53:22 20.7 20 13.9
003B5D72 2019-03-26 01:24:15 20.7 20 13.8
003B5D72 2019-03-26 00:55:11 20.7 20 13.6
003B5D72 2019-03-26 00:26:00 20.7 20 13.7
003B5D72 2019-03-25 23:56:53 20.7 20 13.5
003B5D72 2019-03-25 23:27:47 20.8 21 13.3
003B5D72 2019-03-25 22:58:40 20.8 20 13.3
003B5D72 2019-03-25 22:29:34 20.9 20 14.2
003B5D72 2019-03-25 22:00:28 20.9 20 14
003B5D72 2019-03-25 21:31:22 20.9 20 14.1
003B5D72 2019-03-25 21:02:15 20.9 20 14.1
003B5D72 2019-03-25 20:33:07 20.9 20 14.4
003B5D72 2019-03-25 20:04:00 20.9 20 14.7
003B5D72 2019-03-25 19:34:51 21 20 14.9
003B5D72 2019-03-25 19:05:44 20.9 20 15.1
003B5D72 2019-03-25 18:36:36 20.9 21 15.3
003B5D72 2019-03-25 18:07:29 21 21 15.4
003B5D72 2019-03-25 17:38:22 21 22 15.6
003B5D72 2019-03-25 17:09:13 21.1 23 15.5
003B5D72 2019-03-25 16:40:09 21.1 23 15.8
003B5D72 2019-03-25 16:11:03 21 23 15.8
003B5D72 2019-03-25 15:41:51 21 24 15.8
003B5D72 2019-03-25 15:12:45 21 24 15.8
003B5D72 2019-03-25 14:43:39 21 24 16.1
003B5D72 2019-03-25 14:14:32 21 24 16.2
003B5D72 2019-03-25 12:18:01 20.7 23 16.2
003B5D72 2019-03-25 11:48:55 20.7 24 16.1
003B5D72 2019-03-25 11:19:44 20.8 24 16.2
003B5D72 2019-03-25 10:50:35 20.7 24 16.4
003B5D72 2019-03-25 10:21:26 20.6 24 16.5
003B5D72 2019-03-25 09:52:17 20.5 23 16.5
003B5D72 2019-03-25 09:23:08 20.3 23 16.6
003B5D72 2019-03-25 08:54:00 20.3 23 16.2
003B5D72 2019-03-25 08:24:51 20.3 23 16.3
003B5D72 2019-03-25 07:55:42 20.3 23 16.5
003B5D72 2019-03-25 07:26:33 20.3 23 16.5
003B5D72 2019-03-25 06:57:26 20.3 23 16.3
003B5D72 2019-03-25 06:28:15 20.3 23 16.1
003B5D72 2019-03-25 05:59:06 20.3 23 16.3
003B5D72 2019-03-25 05:29:58 20.3 23 16.4
003B5D72 2019-03-25 05:00:50 20.4 23 16.8
003B5D72 2019-03-25 04:31:44 20.3 23 19.4
003B5D72 2019-03-25 04:02:34 20.4 23 19.4
003B5D72 2019-03-25 03:32:52 20.4 23 19.3
003B5D72 2019-03-25 03:03:46 20.4 23 19.3
003B5D72 2019-03-25 02:34:37 20.4 23 19.3
003B5D72 2019-03-25 02:05:28 20.4 23 19.4
003B5D72 2019-03-25 01:36:20 20.5 23 19.5
003B5D72 2019-03-25 01:07:12 20.5 23 19.4
003B5D72 2019-03-25 00:38:04 20.5 23 19.6
003B5D72 2019-03-25 00:08:57 20.5 23 19.6
003B5D72 2019-03-24 23:39:49 20.6 23 19.7
003B5D72 2019-03-24 23:10:43 20.6 23 19.6
003B5D72 2019-03-24 22:41:36 20.7 23 19.7
003B5D72 2019-03-24 22:12:29 20.7 23 19.9
003B5D72 2019-03-24 21:43:21 20.8 23 20
003B5D72 2019-03-24 21:14:16 20.8 23 20.1
003B5D72 2019-03-24 20:45:09 20.9 23 20
003B5D72 2019-03-24 20:16:02 20.9 23 20
003B5D72 2019-03-24 19:46:53 21 23 20.1
003B5D72 2019-03-24 19:17:46 21 23 20.2
003B5D72 2019-03-24 18:48:39 21 23 20.2
003B5D72 2019-03-24 18:19:32 21 23 20.1
003B5D72 2019-03-24 17:50:25 21 23 19.9
003B5D72 2019-03-24 17:21:18 21 23 17.9
003B5D72 2019-03-24 16:52:15 21 23 18.1
003B5D72 2019-03-24 16:23:07 21 23 18.4
003B5D72 2019-03-24 15:54:00 20.9 24 18.7
003B5D72 2019-03-24 15:24:52 20.8 24 18.8
003B5D72 2019-03-24 14:55:45 20.6 24 19
003B5D72 2019-03-24 14:26:40 20.4 24 18.9
003B5D72 2019-03-24 13:57:30 20.4 24 18.9
003B5D72 2019-03-24 13:28:23 20.3 24 19.1
003B5D72 2019-03-24 12:59:16 20.3 23 19.2
003B5D72 2019-03-24 12:30:10 20.3 23 19.1
003B5D72 2019-03-24 12:01:03 20.3 23 19
003B5D72 2019-03-24 11:31:56 20.3 23 19
003B5D72 2019-03-24 11:02:47 20.3 23 19
003B5D72 2019-03-24 10:33:39 20.3 23 18.9
003B5D72 2019-03-24 10:04:34 20.3 23 18.8
003B5D72 2019-03-24 09:35:28 20.3 23 18.7
003B5D72 2019-03-24 09:06:22 20.3 23 18.7
003B5D72 2019-03-24 08:37:15 20.3 23 18.5
003B5D72 2019-03-24 08:08:10 20.3 23 18.9
003B5D72 2019-03-24 07:39:01 20.3 23 18.7
003B5D72 2019-03-24 07:09:53 20.3 23 20.5
003B5D72 2019-03-24 06:40:46 20.3 23 20.4
003B5D72 2019-03-24 06:11:38 20.3 23 20.4
003B5D72 2019-03-24 05:42:30 20.3 23 20.5
003B5D72 2019-03-24 05:13:22 20.3 23 20.4
003B5D72 2019-03-24 04:44:14 20.3 23 20.4
003B5D72 2019-03-24 04:15:10 20.3 23 20.2
003B5D72 2019-03-24 03:45:59 20.3 23 19.9
003B5D72 2019-03-24 03:16:14 20.3 23 19.9
003B5D72 2019-03-24 02:47:06 20.3 23 19.9
003B5D72 2019-03-24 02:18:00 20.3 23 19.7
003B5D72 2019-03-24 01:48:53 20.3 23 19.7
003B5D72 2019-03-24 01:19:45 20.3 23 19.6
003B5D72 2019-03-24 00:50:38 20.3 23 19.6
003B5D72 2019-03-23 23:52:22 20.3 22 19.5
003B5D72 2019-03-23 23:23:13 20.3 22 19.6
003B5D72 2019-03-23 22:54:06 20.3 22 19.5
003B5D72 2019-03-23 22:24:59 20.4 22 19.6
003B5D72 2019-03-23 21:55:52 20.4 22 19.6
003B5D72 2019-03-23 21:26:47 20.4 22 19.7
003B5D72 2019-03-23 20:57:40 20.4 22 19.8
003B5D72 2019-03-23 20:28:37 20.4 22 19.8
003B5D72 2019-03-23 19:59:27 20.4 22 19.5
003B5D72 2019-03-23 19:30:19 20.4 22 19.6
003B5D72 2019-03-23 19:01:14 20.4 22 17.3
003B5D72 2019-03-23 18:32:04 20.4 21 17.1
003B5D72 2019-03-23 18:02:57 20.4 21 16.9
003B5D72 2019-03-23 17:33:50 20.4 21 16.8
003B5D72 2019-03-23 17:04:43 20.4 21 16.9
003B5D72 2019-03-23 16:35:40 20.4 21 16.6
003B5D72 2019-03-23 16:06:29 20.4 21 16.5
003B5D72 2019-03-23 15:37:21 20.4 21 16.8
003B5D72 2019-03-23 15:08:16 20.4 21 16.6
003B5D72 2019-03-23 14:10:00 20.4 21 16.5
003B5D72 2019-03-23 13:40:53 20.4 21 16.5
003B5D72 2019-03-23 13:11:47 20.5 20 16.6
003B5D72 2019-03-23 12:42:40 20.4 20 16.3
003B5D72 2019-03-23 12:13:34 20.5 20 16.1
003B5D72 2019-03-23 11:44:27 20.4 20 16.4
003B5D72 2019-03-23 11:15:23 20.4 20 16.5
003B5D72 2019-03-23 10:46:15 20.5 20 16.4
003B5D72 2019-03-23 10:17:08 20.4 20 16.4
003B5D72 2019-03-23 09:48:02 20.5 20 16
003B5D72 2019-03-23 09:18:54 20.5 20 15.6
003B5D72 2019-03-23 08:49:47 20.5 20 15.5
003B5D72 2019-03-23 08:20:39 20.5 20 15.4
003B5D72 2019-03-23 07:51:31 20.5 20 18.6
003B5D72 2019-03-23 07:22:24 20.5 20 18.6
003B5D72 2019-03-23 06:53:16 20.5 20 18.5
003B5D72 2019-03-23 06:24:09 20.5 19 18.5
003B5D72 2019-03-23 05:55:03 20.5 19 18.5
003B5D72 2019-03-23 05:25:56 20.5 19 18.5
003B5D72 2019-03-23 04:56:50 20.5 19 18.7
003B5D72 2019-03-23 04:27:43 20.6 19 18.7
003B5D72 2019-03-23 03:58:36 20.6 19 18.7
003B5D72 2019-03-23 03:29:30 20.7 19 18.6
003B5D72 2019-03-23 02:59:50 20.7 19 18.4
003B5D72 2019-03-23 02:30:44 20.7 19 18.4
003B5D72 2019-03-23 02:01:36 20.7 18 18.4
003B5D72 2019-03-23 01:32:30 20.8 18 18.5
003B5D72 2019-03-23 01:03:21 20.8 18 18.5
003B5D72 2019-03-23 00:34:14 20.9 18 18.5
003B5D72 2019-03-23 00:05:08 21 18 18.5
003B5D72 2019-03-22 23:36:00 21 18 18.6
003B5D72 2019-03-22 23:06:54 21.1 18 18.6
003B5D72 2019-03-22 22:37:46 21.1 18 18.5
003B5D72 2019-03-22 22:08:39 21.2 18 18.6
003B5D72 2019-03-22 21:39:32 21.3 18 18.8
003B5D72 2019-03-22 21:10:26 21.4 17 18.9
003B5D72 2019-03-22 20:41:21 21.4 17 19
003B5D72 2019-03-22 20:12:14 21.3 17 19.4
003B5D72 2019-03-22 19:43:08 21.3 17 17.1
003B5D72 2019-03-22 19:14:02 21.3 17 17.7
003B5D72 2019-03-22 18:44:57 21.3 17 18
003B5D72 2019-03-22 18:15:51 21.3 17 17.9
003B5D72 2019-03-22 17:46:45 21.3 16 18.2
003B5D72 2019-03-22 17:17:38 21.3 16 18.3
003B5D72 2019-03-22 16:48:30 21.2 17 18.7
003B5D72 2019-03-22 15:50:16 21.2 17 18.7
003B5D72 2019-03-22 15:21:11 21 18 19
003B5D72 2019-03-22 14:52:04 20.9 18 19.1
003B5D72 2019-03-22 14:22:55 20.8 19 19.4
003B5D72 2019-03-22 13:53:51 20.7 19 19.6
003B5D72 2019-03-22 13:24:43 20.7 19 19.6
003B5D72 2019-03-22 12:26:31 20.7 20 19.7
003B5D72 2019-03-22 11:57:27 20.7 20 20
003B5D72 2019-03-22 11:28:19 20.7 21 20.1
003B5D72 2019-03-22 10:59:11 20.7 21 20.5
003B5D72 2019-03-22 10:30:06 20.7 22 20.5
003B5D72 2019-03-22 10:01:00 20.7 22 20.6
003B5D72 2019-03-22 09:31:54 20.6 22 21
003B5D72 2019-03-22 09:02:49 20.6 23 21.1
003B5D72 2019-03-22 08:33:39 20.6 23 21.1
003B5D72 2019-03-22 08:04:29 20.6 24 21.3
003B5D72 2019-03-22 07:35:19 20.6 24 21.4
003B5D72 2019-03-22 07:06:08 20.6 25 21.3
003B5D72 2019-03-22 06:37:03 20.7 25 21.2
003B5D72 2019-03-22 06:07:50 20.7 25 20.9
003B5D72 2019-03-22 05:38:42 20.7 25 20.8
003B5D72 2019-03-22 05:09:33 20.7 26 21
003B5D72 2019-03-22 04:40:26 20.7 26 20.9
003B5D72 2019-03-22 04:11:18 20.7 26 20.8
003B5D72 2019-03-22 03:42:10 20.7 26 20.4
003B5D72 2019-03-22 03:13:02 20.7 27 20.4
003B5D72 2019-03-22 02:43:23 20.7 27 20.1
003B5D72 2019-03-22 02:14:17 20.7 27 19.9
003B5D72 2019-03-22 01:45:14 20.7 27 19.9
003B5D72 2019-03-22 01:16:05 20.7 28 19.9
003B5D72 2019-03-22 00:46:57 20.8 28 19.7
003B5D72 2019-03-22 00:17:49 20.8 28 19.4
003B5D72 2019-03-21 23:48:41 20.8 28 19.2
003B5D72 2019-03-21 23:19:33 20.8 28 18.7
003B5D72 2019-03-21 22:50:25 20.8 28 18.5
003B5D72 2019-03-21 22:21:18 20.9 28 18.4
003B5D72 2019-03-21 21:52:11 20.9 28 17.6
003B5D72 2019-03-21 21:23:03 20.9 28 17.2
003B5D72 2019-03-21 20:53:55 20.9 28 17.4
003B5D72 2019-03-21 20:24:49 21 28 16.7
003B5D72 2019-03-21 19:55:41 21 28 16.2
003B5D72 2019-03-21 19:26:33 21 28 15.7
003B5D72 2019-03-21 18:57:25 21 28 15.8
003B5D72 2019-03-21 18:28:17 21 28 15.7
003B5D72 2019-03-21 17:59:09 21.1 28 15.9
003B5D72 2019-03-21 17:30:01 21.1 27 15.2
003B5D72 2019-03-21 17:00:54 21.2 27 15.2
003B5D72 2019-03-21 16:31:47 21.2 27 15.5
003B5D72 2019-03-21 16:02:41 21.3 28 15.5
003B5D72 2019-03-21 15:33:34 21.3 28 15.6
003B5D72 2019-03-21 15:04:29 21.3 27 15.6
003B5D72 2019-03-21 14:06:10 21.1 26 15.6
003B5D72 2019-03-21 13:37:07 21 26 15.8
003B5D72 2019-03-21 13:07:56 21 26 15.9
003B5D72 2019-03-21 12:38:51 20.9 25 16.3
003B5D72 2019-03-21 12:09:41 20.9 25 16.2
003B5D72 2019-03-21 11:40:34 20.8 25 16.2
003B5D72 2019-03-21 11:11:29 20.8 25 16.5
003B5D72 2019-03-21 10:42:24 20.8 25 19.2
003B5D72 2019-03-21 10:13:16 20.7 25 20.9
003B5D72 2019-03-21 09:44:05 20.7 25 20.8
003B5D72 2019-03-21 09:14:57 20.6 25 20.8
003B5D72 2019-03-21 08:45:49 20.6 25 20.8
003B5D72 2019-03-21 08:16:41 20.6 25 20.6
003B5D72 2019-03-21 07:47:34 20.6 25 20.6
003B5D72 2019-03-21 07:18:25 20.6 25 20.6
003B5D72 2019-03-21 06:49:18 20.6 25 20.7
003B5D72 2019-03-21 06:20:07 20.6 25 20.7
003B5D72 2019-03-21 05:51:00 20.6 25 20.8
003B5D72 2019-03-21 05:21:52 20.6 25 20.7
003B5D72 2019-03-21 04:52:48 20.6 25 20.6
003B5D72 2019-03-21 04:23:36 20.6 25 20.6
003B5D72 2019-03-21 03:54:29 20.6 26 20.6
003B5D72 2019-03-21 03:25:21 20.6 26 20.6
003B5D72 2019-03-21 02:56:13 20.6 26 20.5
003B5D72 2019-03-21 02:26:30 20.6 26 20.6
003B5D72 2019-03-21 01:57:23 20.6 26 20.8
003B5D72 2019-03-21 01:28:16 20.6 26 20.7
003B5D72 2019-03-21 00:59:11 20.7 26 20.5
003B5D72 2019-03-21 00:30:05 20.7 26 20.5
003B5D72 2019-03-21 00:00:57 20.7 26 20.5
003B5D72 2019-03-20 23:31:51 20.7 26 20.4
003B5D72 2019-03-20 23:02:45 20.7 26 15
003B5D72 2019-03-20 22:33:38 20.7 26 15.4
003B5D72 2019-03-20 22:04:31 20.7 26 15.5
003B5D72 2019-03-20 21:35:22 20.7 26 15.6
003B5D72 2019-03-20 21:06:16 20.8 26 15.6
003B5D72 2019-03-20 20:37:10 20.8 26 15.8
003B5D72 2019-03-20 20:08:03 20.8 26 16.1
003B5D72 2019-03-20 19:38:56 20.8 26 16
003B5D72 2019-03-20 19:09:48 20.8 26 16.2
003B5D72 2019-03-20 18:40:40 20.8 26 16
003B5D72 2019-03-20 18:11:36 20.9 26 16.2
003B5D72 2019-03-20 17:42:27 21 26 16.1
003B5D72 2019-03-20 17:13:22 21 26 16.2
003B5D72 2019-03-20 16:15:05 21.1 26 16.2
003B5D72 2019-03-20 15:46:00 21.1 26 16.6
003B5D72 2019-03-20 14:47:44 21.1 25 16.6
003B5D72 2019-03-20 14:18:37 21.1 25 17
003B5D72 2019-03-20 13:49:29 21 25 17.2
003B5D72 2019-03-20 13:20:20 21 25 16.8
003B5D72 2019-03-20 12:51:14 20.9 25 17
003B5D72 2019-03-20 12:22:11 20.9 25 17.2
003B5D72 2019-03-20 11:53:00 20.9 25 17.3
003B5D72 2019-03-20 11:23:53 20.8 25 17.4
003B5D72 2019-03-20 10:54:49 20.8 25 17.8
003B5D72 2019-03-20 10:25:40 20.7 25 20
003B5D72 2019-03-20 09:27:27 20.6 25 20.1
003B5D72 2019-03-20 08:58:18 20.5 25 20.1
003B5D72 2019-03-20 08:29:11 20.5 26 20.2
003B5D72 2019-03-20 08:00:06 20.5 26 20.4
003B5D72 2019-03-20 07:30:57 20.6 26 20.4
003B5D72 2019-03-20 07:01:49 20.6 26 20.6
003B5D72 2019-03-20 06:32:41 20.6 27 20.5
003B5D72 2019-03-20 06:03:34 20.6 27 20.4
003B5D72 2019-03-20 05:34:27 20.6 27 20.5
003B5D72 2019-03-20 05:05:21 20.5 27 20.5
003B5D72 2019-03-20 04:36:15 20.6 27 21.8
003B5D72 2019-03-20 04:07:08 20.6 27 21.9
003B5D72 2019-03-20 03:38:02 20.6 27 21.9
003B5D72 2019-03-20 03:08:56 20.6 27 21.8
003B5D72 2019-03-20 02:39:50 20.6 28 21.7
003B5D72 2019-03-20 02:10:13 20.6 28 22.6
003B5D72 2019-03-20 01:41:04 20.6 28 22.5
003B5D72 2019-03-20 01:11:57 20.6 28 22.5
003B5D72 2019-03-20 00:42:52 20.7 28 22.4
003B5D72 2019-03-20 00:13:47 20.7 28 22.3
003B5D72 2019-03-19 23:44:37 20.7 28 22.3
003B5D72 2019-03-19 23:15:29 20.7 28 22.3
003B5D72 2019-03-19 22:46:20 20.7 28 22.1
003B5D72 2019-03-19 22:17:12 20.8 29 20.9
003B5D72 2019-03-19 21:48:05 20.8 29 22
003B5D72 2019-03-19 21:18:58 20.8 29 22
003B5D72 2019-03-19 20:49:51 20.8 29 21.8
003B5D72 2019-03-19 20:20:44 20.9 29 21.6
003B5D72 2019-03-19 19:51:37 20.9 29 21.7
003B5D72 2019-03-19 19:22:30 20.9 29 21.5
003B5D72 2019-03-19 18:53:25 20.9 29 21.5
003B5D72 2019-03-19 18:24:14 21 29 21.5
003B5D72 2019-03-19 17:55:07 21.1 30 21.4
003B5D72 2019-03-19 17:25:59 21.2 30 21.4
003B5D72 2019-03-19 16:56:51 21.2 30 19.9
003B5D72 2019-03-19 16:27:43 21.2 30 19.8
003B5D72 2019-03-19 15:58:37 21.1 29 19.7
003B5D72 2019-03-19 15:29:28 21.1 29 19.7
003B5D72 2019-03-19 15:00:20 21.1 29 19.7
003B5D72 2019-03-19 14:31:14 21.2 29 17.3
003B5D72 2019-03-19 14:02:07 21.1 29 17.2
003B5D72 2019-03-19 13:32:58 21.1 29 17.2
003B5D72 2019-03-19 13:03:51 21.1 29 17.4
003B5D72 2019-03-19 12:34:46 21 29 17.5
003B5D72 2019-03-19 12:05:38 21 29 17.5
003B5D72 2019-03-19 11:36:31 20.9 29 17.5
003B5D72 2019-03-19 11:07:23 20.9 29 17.5
003B5D72 2019-03-19 10:38:12 20.8 28 17.5
003B5D72 2019-03-19 09:39:54 20.7 27 17.5
003B5D72 2019-03-19 09:10:46 20.6 27 12.6
003B5D72 2019-03-19 08:41:41 20.6 27 12.6
003B5D72 2019-03-19 08:12:31 20.6 27 12.7
003B5D72 2019-03-19 07:43:26 20.6 27 12.9
003B5D72 2019-03-19 07:14:18 20.5 27 12.8
003B5D72 2019-03-19 06:45:07 20.6 27 13.1
003B5D72 2019-03-19 06:16:01 20.6 27 13
003B5D72 2019-03-19 05:46:55 20.6 27 12.7
003B5D72 2019-03-19 05:17:44 20.6 27 12.7
003B5D72 2019-03-19 04:48:34 20.6 27 12.7
003B5D72 2019-03-19 04:19:29 20.6 27 12.8
003B5D72 2019-03-19 03:50:18 20.6 27 12.7
003B5D72 2019-03-19 03:21:11 20.6 27 12.8
003B5D72 2019-03-19 02:52:05 20.6 27 12.7
003B5D72 2019-03-19 02:22:57 20.6 27 12.8
003B5D72 2019-03-19 01:53:19 20.6 27 12.8
003B5D72 2019-03-19 01:24:09 20.6 27 12.8
003B5D72 2019-03-19 00:55:05 20.6 27 12.2
003B5D72 2019-03-19 00:25:56 20.6 27 12.1
003B5D72 2019-03-18 23:56:49 20.6 27 12.1
003B5D72 2019-03-18 23:27:42 20.6 27 12.1
003B5D72 2019-03-18 22:58:35 20.7 27 12
003B5D72 2019-03-18 22:29:26 20.7 27 12.8
003B5D72 2019-03-18 22:00:17 20.7 27 13
003B5D72 2019-03-18 21:31:10 20.7 27 13.2
003B5D72 2019-03-18 21:02:03 20.7 27 14.8
003B5D72 2019-03-18 20:32:52 20.7 27 14.9
003B5D72 2019-03-18 20:03:44 20.7 27 16.1
003B5D72 2019-03-18 19:34:38 20.8 27 16.2
003B5D72 2019-03-18 18:36:22 20.8 27 16.2
003B5D72 2019-03-18 18:07:13 20.9 27 16.2
003B5D72 2019-03-18 17:38:05 20.9 27 16.6
003B5D72 2019-03-18 17:08:57 20.9 27 16.8
003B5D72 2019-03-18 16:39:51 20.9 27 17.7
003B5D72 2019-03-18 16:10:43 20.9 27 18.1
003B5D72 2019-03-18 15:41:36 20.9 27 18.2
003B5D72 2019-03-18 15:12:27 20.9 27 18.3
003B5D72 2019-03-18 14:43:20 20.9 27 18.6
003B5D72 2019-03-18 14:14:14 20.9 27 18.6
003B5D72 2019-03-18 12:46:54 20.8 27 18.7
003B5D72 2019-03-18 11:48:38 20.7 27 18.9
003B5D72 2019-03-18 11:19:30 20.7 27 18.9
003B5D72 2019-03-18 10:50:24 20.7 27 19
003B5D72 2019-03-18 10:21:14 20.7 27 19
003B5D72 2019-03-18 09:52:09 20.6 27 19.1
003B5D72 2019-03-18 09:23:02 20.6 27 19.4
003B5D72 2019-03-18 08:53:54 20.6 27 19.2
003B5D72 2019-03-18 08:24:46 20.6 27 19.3
003B5D72 2019-03-18 07:55:39 20.6 27 19.2
003B5D72 2019-03-18 07:26:32 20.6 27 18.9
003B5D72 2019-03-18 06:57:25 20.6 27 18.9
003B5D72 2019-03-18 06:28:17 20.6 27 20.3
003B5D72 2019-03-18 05:59:10 20.6 27 20.3
003B5D72 2019-03-18 05:30:02 20.6 27 20.5
003B5D72 2019-03-18 05:00:57 20.6 27 20.5
003B5D72 2019-03-18 04:31:47 20.6 27 20.6
003B5D72 2019-03-18 04:02:40 20.6 27 20.6
003B5D72 2019-03-18 03:33:33 20.6 27 20.7
003B5D72 2019-03-18 03:04:27 20.6 27 20.5
003B5D72 2019-03-18 02:35:22 20.6 26 20.6
003B5D72 2019-03-18 02:06:15 20.6 26 20.5
003B5D72 2019-03-18 01:36:35 20.6 26 20.4
003B5D72 2019-03-18 01:07:29 20.6 26 20.3
003B5D72 2019-03-18 00:38:24 20.6 26 20.4
003B5D72 2019-03-18 00:09:16 20.6 26 20.4
003B5D72 2019-03-17 23:40:09 20.6 26 20.5
003B5D72 2019-03-17 23:11:01 20.6 26 20.5
003B5D72 2019-03-17 22:41:55 20.6 26 20.5
003B5D72 2019-03-17 22:12:46 20.6 26 20.6
003B5D72 2019-03-17 21:43:39 20.6 26 20.5
003B5D72 2019-03-17 21:14:33 20.6 26 20.5
003B5D72 2019-03-17 20:45:25 20.6 26 20.6
003B5D72 2019-03-17 20:16:18 20.6 26 20.6
003B5D72 2019-03-17 19:47:10 20.6 26 20.6
003B5D72 2019-03-17 19:18:00 20.5 26 20.8
003B5D72 2019-03-17 18:48:52 20.6 26 19.3
003B5D72 2019-03-17 18:19:40 20.6 26 19.6
003B5D72 2019-03-17 17:50:32 20.6 26 19.4
003B5D72 2019-03-17 17:21:24 20.6 26 19.7
003B5D72 2019-03-17 16:52:16 20.6 26 19.6
003B5D72 2019-03-17 16:23:08 20.6 26 19.7
003B5D72 2019-03-17 15:54:02 20.6 27 19.5
003B5D72 2019-03-17 15:24:55 20.6 26 19.5
003B5D72 2019-03-17 14:55:47 20.6 27 19.1
003B5D72 2019-03-17 14:26:40 20.7 26 19.4
003B5D72 2019-03-17 13:57:31 20.6 27 19.6
003B5D72 2019-03-17 13:28:23 20.7 27 19.4
003B5D72 2019-03-17 12:59:16 20.7 27 19.7
003B5D72 2019-03-17 12:30:10 20.7 27 19.7
003B5D72 2019-03-17 12:01:04 20.6 27 19.7
003B5D72 2019-03-17 11:31:57 20.6 27 19.8
003B5D72 2019-03-17 11:02:50 20.6 27 19.9
003B5D72 2019-03-17 10:33:41 20.6 27 20.1
003B5D72 2019-03-17 10:04:33 20.6 27 21.4
003B5D72 2019-03-17 09:35:26 20.6 27 21.4
003B5D72 2019-03-17 09:06:19 20.6 27 21.4
003B5D72 2019-03-17 08:37:12 20.6 27 21.4
003B5D72 2019-03-17 08:08:06 20.6 27 21.4
003B5D72 2019-03-17 07:39:00 20.6 27 21.4
003B5D72 2019-03-17 07:09:54 20.6 27 22.3
003B5D72 2019-03-17 06:40:48 20.6 27 22.3
003B5D72 2019-03-17 06:11:41 20.6 27 22.2
003B5D72 2019-03-17 05:42:32 20.6 27 22.1
003B5D72 2019-03-17 05:13:23 20.6 27 22.1
003B5D72 2019-03-17 04:44:17 20.6 27 22.1
003B5D72 2019-03-17 04:15:08 20.6 27 22.1
003B5D72 2019-03-17 03:46:01 20.6 27 22.1
003B5D72 2019-03-17 03:16:53 20.6 27 22.2
003B5D72 2019-03-17 02:47:47 20.6 27 22.3
003B5D72 2019-03-17 02:18:39 20.6 27 22.2
003B5D72 2019-03-17 01:49:31 20.6 27 22.3
003B5D72 2019-03-17 01:19:51 20.6 27 22.4
003B5D72 2019-03-17 00:50:43 20.6 27 22.4
003B5D72 2019-03-17 00:21:35 20.6 27 22.4
003B5D72 2019-03-16 23:52:26 20.6 27 22.3
003B5D72 2019-03-16 23:23:18 20.6 27 22.5
003B5D72 2019-03-16 22:54:11 20.6 27 22.5
003B5D72 2019-03-16 22:25:02 20.6 27 21.5
003B5D72 2019-03-16 21:55:55 20.6 26 21.8
003B5D72 2019-03-16 21:26:44 20.6 26 21.8
003B5D72 2019-03-16 20:57:37 20.6 26 21.7
003B5D72 2019-03-16 20:28:28 20.6 26 21.7
003B5D72 2019-03-16 19:59:20 20.6 26 21.7
003B5D72 2019-03-16 19:30:14 20.6 26 20.6
003B5D72 2019-03-16 19:01:06 20.6 26 20.7
003B5D72 2019-03-16 18:31:57 20.6 26 20.8
003B5D72 2019-03-16 18:02:48 20.6 26 21
003B5D72 2019-03-16 17:33:40 20.7 26 21.1
003B5D72 2019-03-16 17:04:31 20.7 26 20.9
003B5D72 2019-03-16 16:35:21 20.7 26 21
003B5D72 2019-03-16 16:06:13 20.6 26 20.9
003B5D72 2019-03-16 15:37:06 20.7 26 21
003B5D72 2019-03-16 15:07:57 20.7 26 20.9
003B5D72 2019-03-16 14:38:48 20.6 26 21
003B5D72 2019-03-16 14:09:40 20.6 26 20.8
003B5D72 2019-03-16 13:40:33 20.6 26 20.8
003B5D72 2019-03-16 13:11:27 20.7 26 20.8
003B5D72 2019-03-16 12:42:18 20.6 26 20.6
003B5D72 2019-03-16 12:13:11 20.6 26 20.7
003B5D72 2019-03-16 11:44:03 20.6 26 20.7
003B5D72 2019-03-16 11:14:55 20.6 26 20.4
003B5D72 2019-03-16 10:45:47 20.6 26 20.4
003B5D72 2019-03-16 10:16:39 20.7 26 20.4
003B5D72 2019-03-16 09:47:34 20.7 26 20.1
003B5D72 2019-03-16 09:18:28 20.7 26 20
003B5D72 2019-03-16 08:49:22 20.7 26 20.2
003B5D72 2019-03-16 08:20:15 20.7 26 20.6
003B5D72 2019-03-16 07:51:07 20.7 26 20.6
003B5D72 2019-03-16 07:22:00 20.7 26 21.7
003B5D72 2019-03-16 06:52:52 20.7 26 21.7
003B5D72 2019-03-16 06:23:42 20.7 26 21.5
003B5D72 2019-03-16 05:54:32 20.7 26 21.4
003B5D72 2019-03-16 05:25:25 20.7 26 21.3
003B5D72 2019-03-16 04:56:18 20.7 26 21.4
003B5D72 2019-03-16 04:27:12 20.7 26 21.2
003B5D72 2019-03-16 03:58:04 20.6 26 21.2
003B5D72 2019-03-16 03:28:57 20.7 26 20.9
003B5D72 2019-03-16 02:59:49 20.7 26 20.9
003B5D72 2019-03-16 02:30:41 20.7 26 20.9
003B5D72 2019-03-16 02:01:33 20.7 26 20.8
003B5D72 2019-03-16 01:32:25 20.7 27 20.7
003B5D72 2019-03-16 01:02:45 20.7 27 20.5
003B5D72 2019-03-16 00:33:38 20.7 27 20.4
003B5D72 2019-03-16 00:04:30 20.7 27 20.5
003B5D72 2019-03-15 23:35:23 20.7 27 20.4
003B5D72 2019-03-15 23:06:18 20.7 27 20.2
003B5D72 2019-03-15 22:37:13 20.7 27 20
003B5D72 2019-03-15 22:08:07 20.7 27 19.9
003B5D72 2019-03-15 21:38:57 20.7 27 19.9
003B5D72 2019-03-15 21:09:50 20.8 27 19.7
003B5D72 2019-03-15 20:40:43 20.8 27 19.3
003B5D72 2019-03-15 20:11:35 20.8 27 20.8
003B5D72 2019-03-15 19:42:28 20.8 27 19.3
003B5D72 2019-03-15 19:13:23 20.7 26 19.1
003B5D72 2019-03-15 18:44:14 20.7 26 19.2
003B5D72 2019-03-15 18:15:06 20.8 26 19.2
003B5D72 2019-03-15 17:45:57 20.8 26 19
003B5D72 2019-03-15 17:16:49 20.8 26 19.1
003B5D72 2019-03-15 16:47:40 20.8 26 19.1
003B5D72 2019-03-15 16:18:33 20.8 26 19.1
003B5D72 2019-03-15 15:49:25 20.8 26 19.1
003B5D72 2019-03-15 15:20:16 20.7 26 19.1
003B5D72 2019-03-15 14:51:09 20.8 26 19
003B5D72 2019-03-15 14:21:59 20.8 26 19
003B5D72 2019-03-15 13:52:57 20.8 26 19
003B5D72 2019-03-15 13:23:45 20.8 26 19.1
003B5D72 2019-03-15 12:54:38 20.8 26 19
003B5D72 2019-03-15 12:25:31 20.8 26 19.1
003B5D72 2019-03-15 11:56:24 20.8 26 19
003B5D72 2019-03-15 11:27:17 20.8 26 19.3
003B5D72 2019-03-15 10:58:09 20.7 26 19.4
003B5D72 2019-03-15 09:59:56 20.7 25 19.4
003B5D72 2019-03-15 09:30:50 20.7 25 19.4
003B5D72 2019-03-15 09:01:41 20.6 25 19.5
003B5D72 2019-03-15 08:32:33 20.6 25 19.6
003B5D72 2019-03-15 08:03:26 20.6 25 19.7
003B5D72 2019-03-15 07:34:17 20.6 24 17.3
003B5D72 2019-03-15 07:05:10 20.6 24 17.7
003B5D72 2019-03-15 06:36:02 20.6 24 17.8
003B5D72 2019-03-15 06:06:54 20.6 24 17.5
003B5D72 2019-03-15 05:37:46 20.7 24 17.7
003B5D72 2019-03-15 05:08:39 20.6 24 17.7
003B5D72 2019-03-15 04:39:32 20.7 24 17.7
003B5D72 2019-03-15 04:10:23 20.7 24 17.9
003B5D72 2019-03-15 03:41:15 20.7 24 17.9
003B5D72 2019-03-15 03:12:07 20.7 24 17.8
003B5D72 2019-03-15 02:42:59 20.6 24 18.1
003B5D72 2019-03-15 02:13:52 20.7 24 18.1
003B5D72 2019-03-15 01:44:46 20.7 24 18.1
003B5D72 2019-03-15 01:15:41 20.7 24 18.2
003B5D72 2019-03-15 00:46:02 20.7 24 18.1
003B5D72 2019-03-15 00:16:56 20.7 24 18
003B5D72 2019-03-14 23:47:49 20.7 24 17.8
003B5D72 2019-03-14 23:18:42 20.7 24 17.4
003B5D72 2019-03-14 22:49:36 20.7 24 17.4
003B5D72 2019-03-14 22:20:29 20.8 24 17.6
003B5D72 2019-03-14 21:51:23 20.8 24 17.5
003B5D72 2019-03-14 21:22:17 20.8 24 17.4
003B5D72 2019-03-14 20:53:10 20.8 24 17.1
003B5D72 2019-03-14 20:24:04 20.8 24 16.9
003B5D72 2019-03-14 19:54:57 20.8 24 17
003B5D72 2019-03-14 19:25:49 20.9 24 15.9
003B5D72 2019-03-14 18:56:41 20.9 24 15.7
003B5D72 2019-03-14 18:27:34 20.9 24 15.6
003B5D72 2019-03-14 17:58:26 20.9 24 15.3
003B5D72 2019-03-14 17:29:19 20.9 24 18.5
003B5D72 2019-03-14 17:00:10 20.9 24 18.3
003B5D72 2019-03-14 16:31:04 20.9 24 18.2
003B5D72 2019-03-14 16:01:57 20.9 24 18.2
003B5D72 2019-03-14 15:32:49 20.9 24 17.9
003B5D72 2019-03-14 15:03:42 20.9 24 18.1
003B5D72 2019-03-14 14:34:36 20.9 24 18.1
003B5D72 2019-03-14 14:05:29 20.9 24 17.9
003B5D72 2019-03-14 13:36:22 20.9 23 18
003B5D72 2019-03-14 13:07:15 20.9 23 18.3
003B5D72 2019-03-14 12:38:12 20.9 23 18.3
003B5D72 2019-03-14 12:09:00 20.8 23 18.3
003B5D72 2019-03-14 11:39:51 20.8 22 18.3
003B5D72 2019-03-14 11:10:43 20.8 22 18.6
003B5D72 2019-03-14 10:41:33 20.8 22 18.4
003B5D72 2019-03-14 10:12:28 20.7 21 18.5
003B5D72 2019-03-14 09:43:21 20.7 21 18.6
003B5D72 2019-03-14 09:14:11 20.7 20 18.6
003B5D72 2019-03-14 08:45:02 20.7 20 18.7
003B5D72 2019-03-14 05:50:12 20.6 19 19.1
003B5D72 2019-03-14 04:51:57 20.6 18 16.6
003B5D72 2019-03-14 04:22:49 20.6 18 16.6
003B5D72 2019-03-14 03:53:41 20.6 18 16.6
003B5D72 2019-03-14 03:24:34 20.6 18 16.5
003B5D72 2019-03-14 02:55:26 20.6 18 16.4
003B5D72 2019-03-14 02:26:18 20.6 18 16.3
003B5D72 2019-03-14 01:57:10 20.6 17 16.3
003B5D72 2019-03-14 01:28:02 20.6 17 16.1
003B5D72 2019-03-14 00:58:53 20.6 17 15.7
003B5D72 2019-03-14 00:29:11 20.6 17 15.5
003B5D72 2019-03-14 00:00:03 20.6 17 15.6
003B5D72 2019-03-13 23:30:57 20.6 17 15.1
003B5D72 2019-03-13 23:01:47 20.6 17 15.4
003B5D72 2019-03-13 22:32:41 20.6 17 15.2
003B5D72 2019-03-13 22:03:31 20.6 17 15.3
003B5D72 2019-03-13 21:05:18 20.7 16 15.4
003B5D72 2019-03-13 20:36:08 20.7 16 15.5
003B5D72 2019-03-13 20:06:59 20.7 16 15.6
003B5D72 2019-03-13 19:37:51 20.7 16 15.2
003B5D72 2019-03-13 19:08:41 20.7 16 15.1
003B5D72 2019-03-13 18:39:32 20.8 16 18.4
003B5D72 2019-03-13 18:10:24 20.8 16 18.6
003B5D72 2019-03-13 17:41:15 20.9 16 18.8
003B5D72 2019-03-13 17:12:06 20.9 16 18.9
003B5D72 2019-03-13 16:43:00 21 16 19.2
003B5D72 2019-03-13 16:13:53 20.9 16 19.4
003B5D72 2019-03-13 15:15:39 20.9 16 19.4
003B5D72 2019-03-13 14:46:30 20.8 16 19.4
003B5D72 2019-03-13 14:17:25 20.8 16 19.7
003B5D72 2019-03-13 13:48:19 20.8 16 19.7
003B5D72 2019-03-13 13:19:07 20.8 16 19.8
003B5D72 2019-03-13 12:49:59 20.8 16 19.8
003B5D72 2019-03-13 12:20:54 20.8 16 19.9
003B5D72 2019-03-13 11:51:44 20.8 16 20.2
003B5D72 2019-03-13 11:22:32 20.8 16 20.3
003B5D72 2019-03-13 10:53:26 20.7 16 20.3
003B5D72 2019-03-13 09:55:07 20.6 16 20.6
003B5D72 2019-03-13 09:26:01 20.5 15 20.5
003B5D72 2019-03-13 08:56:51 20.3 15 20.7
003B5D72 2019-03-13 08:27:42 20.3 15 20.8
003B5D72 2019-03-13 07:58:36 20.3 15 20.7
003B5D72 2019-03-13 07:29:27 20.4 15 20.7
003B5D72 2019-03-13 07:00:20 20.4 15 20.7
003B5D72 2019-03-13 06:31:10 20.4 15 20.8
003B5D72 2019-03-13 06:02:02 20.4 15 19
003B5D72 2019-03-13 05:32:55 20.4 16 18.9
003B5D72 2019-03-13 05:03:48 20.4 16 18.8
003B5D72 2019-03-13 04:34:40 20.4 16 19
003B5D72 2019-03-13 04:05:33 20.4 16 18.7
003B5D72 2019-03-13 03:36:26 20.4 16 18.5
003B5D72 2019-03-13 03:07:16 20.4 16 18.4
003B5D72 2019-03-13 02:38:07 20.5 16 18.4
003B5D72 2019-03-13 02:08:58 20.5 16 18
003B5D72 2019-03-13 01:39:48 20.5 16 20.1
003B5D72 2019-03-13 01:10:39 20.5 16 21.4
003B5D72 2019-03-13 00:41:31 20.5 16 21.4
003B5D72 2019-03-13 00:11:41 20.5 16 21.3
003B5D72 2019-03-12 23:42:32 20.5 16 22.3
003B5D72 2019-03-12 23:13:23 20.5 16 22.2
003B5D72 2019-03-12 22:44:15 20.6 16 22.2
003B5D72 2019-03-12 22:15:07 20.6 16 22.1
003B5D72 2019-03-12 21:46:00 20.6 16 23
003B5D72 2019-03-12 21:16:51 20.6 16 23.7
003B5D72 2019-03-12 20:47:42 20.6 16 24.3
003B5D72 2019-03-12 20:18:34 20.6 16 24.9
003B5D72 2019-03-12 19:49:24 20.7 16 25.4
003B5D72 2019-03-12 19:20:15 20.7 16 25.9
003B5D72 2019-03-12 18:51:06 20.7 16 26.3
003B5D72 2019-03-12 18:21:58 20.7 16 26.6
003B5D72 2019-03-12 17:52:50 20.7 16 27
003B5D72 2019-03-12 17:23:44 20.7 16 27.3
003B5D72 2019-03-12 16:54:36 20.7 16 27.6
003B5D72 2019-03-12 16:25:31 20.8 16 27.8
003B5D72 2019-03-12 15:56:27 20.7 16 28.1
003B5D72 2019-03-12 15:27:16 20.7 16 28.4
003B5D72 2019-03-12 14:58:10 20.7 16 28.6
003B5D72 2019-03-12 14:29:05 20.7 16 28.8
003B5D72 2019-03-12 13:59:55 20.7 16 29.1
003B5D72 2019-03-12 13:30:51 20.7 16 29.1
003B5D72 2019-03-12 13:01:43 20.7 16 29.1
003B5D72 2019-03-12 12:32:38 20.6 16 29.1
003B5D72 2019-03-12 12:03:29 20.6 16 29.3
003B5D72 2019-03-12 11:05:12 20.5 15 29.3
003B5D72 2019-03-12 10:36:05 20.5 15 29.5
003B5D72 2019-03-12 10:06:56 20.5 15 29.7
003B5D72 2019-03-12 09:37:47 20.4 15 29.8
003B5D72 2019-03-12 09:08:39 20.4 15 29.8
003B5D72 2019-03-12 08:39:31 20.3 15 29.8
003B5D72 2019-03-12 08:10:24 20.3 15 29.8
003B5D72 2019-03-12 07:41:17 20.4 16 29.8
003B5D72 2019-03-12 07:12:10 20.4 16 29.8
003B5D72 2019-03-12 06:43:01 20.4 16 29.8
003B5D72 2019-03-12 06:13:52 20.4 16 29.8
003B5D72 2019-03-12 05:44:43 20.4 16 29.8
003B5D72 2019-03-12 05:15:34 20.4 16 29.8
003B5D72 2019-03-12 04:46:27 20.4 16 29.8
003B5D72 2019-03-12 04:17:18 20.4 16 29.8
003B5D72 2019-03-12 03:48:10 20.4 16 29.8
003B5D72 2019-03-12 03:19:01 20.5 16 29.7
003B5D72 2019-03-12 02:49:53 20.5 16 29.5
003B5D72 2019-03-12 02:20:43 20.5 16 29.3
003B5D72 2019-03-12 01:51:35 20.5 16 29.1
003B5D72 2019-03-12 01:22:26 20.5 16 28.8
003B5D72 2019-03-12 00:53:18 20.5 16 28.6
003B5D72 2019-03-12 00:24:09 20.5 16 28.4
003B5D72 2019-03-11 23:54:32 20.5 16 28.1
003B5D72 2019-03-11 23:25:24 20.5 16 27.9
003B5D72 2019-03-11 22:56:15 20.5 16 27.6
003B5D72 2019-03-11 22:27:07 20.6 16 27.3
003B5D72 2019-03-11 21:57:59 20.6 16 26.9
003B5D72 2019-03-11 21:28:53 20.6 16 26.6
003B5D72 2019-03-11 20:59:46 20.7 16 26.2
003B5D72 2019-03-11 20:30:39 20.7 16 25.8
003B5D72 2019-03-11 20:01:31 20.7 16 25.3
003B5D72 2019-03-11 19:32:24 20.7 16 24.8
003B5D72 2019-03-11 19:03:19 20.7 16 24.1
003B5D72 2019-03-11 18:34:13 20.7 16 23.4
003B5D72 2019-03-11 18:05:06 20.8 16 22.6
003B5D72 2019-03-11 17:35:59 20.8 16 22.6
003B5D72 2019-03-11 17:06:53 20.8 16 21.5
003B5D72 2019-03-11 16:37:47 20.8 16 20.2
003B5D72 2019-03-11 16:08:39 20.8 16 18.1
003B5D72 2019-03-11 15:39:33 20.7 16 18
003B5D72 2019-03-11 15:10:27 20.7 16 18
003B5D72 2019-03-11 14:41:26 20.6 16 18.2
003B5D72 2019-03-11 14:12:21 20.6 16 18.2
003B5D72 2019-03-11 13:43:12 20.6 16 18.2
003B5D72 2019-03-11 13:14:06 20.5 16 18.4
003B5D72 2019-03-11 12:44:59 20.5 16 18.5
003B5D72 2019-03-11 12:15:56 20.5 17 18.4
003B5D72 2019-03-11 11:46:47 20.5 17 18.6
003B5D72 2019-03-11 11:17:43 20.5 17 18.6
003B5D72 2019-03-11 10:48:38 20.5 17 18.8
003B5D72 2019-03-11 10:19:35 20.5 17 18.8
003B5D72 2019-03-11 09:50:28 20.4 17 18.6
003B5D72 2019-03-11 09:21:26 20.4 17 18.7
003B5D72 2019-03-11 08:52:18 20.3 17 18.8
003B5D72 2019-03-11 08:23:13 20.3 18 20.6
003B5D72 2019-03-11 07:54:08 20.4 18 20.6
003B5D72 2019-03-11 07:25:06 20.4 18 20.7
003B5D72 2019-03-11 06:55:58 20.3 18 20.7
003B5D72 2019-03-11 06:26:51 20.4 18 20.7
003B5D72 2019-03-11 05:57:43 20.4 18 19
003B5D72 2019-03-11 05:28:35 20.4 18 18.9
003B5D72 2019-03-11 04:59:28 20.4 18 18.8
003B5D72 2019-03-11 04:30:20 20.4 18 18.8
003B5D72 2019-03-11 04:01:15 20.4 19 18.8
003B5D72 2019-03-11 03:32:03 20.4 19 18.8
003B5D72 2019-03-11 03:02:55 20.5 19 18.6
003B5D72 2019-03-11 02:33:49 20.5 19 18.5
003B5D72 2019-03-11 02:04:39 20.5 19 18.5
003B5D72 2019-03-11 01:35:33 20.4 19 18.6
003B5D72 2019-03-11 01:06:28 20.5 19 18.5
003B5D72 2019-03-11 00:37:17 20.5 19 18.5
003B5D72 2019-03-11 00:08:09 20.5 19 18.6
003B5D72 2019-03-10 23:38:29 20.5 19 18.4
003B5D72 2019-03-10 23:09:22 20.5 19 18.2
003B5D72 2019-03-10 22:40:15 20.5 20 18
003B5D72 2019-03-10 22:11:09 20.5 20 18.1
003B5D72 2019-03-10 21:42:05 20.5 20 18.1
003B5D72 2019-03-10 21:12:57 20.6 20 18.1
003B5D72 2019-03-10 20:43:50 20.6 20 13.9
003B5D72 2019-03-10 20:14:43 20.6 20 13.9
003B5D72 2019-03-10 19:45:37 20.6 20 13.1
003B5D72 2019-03-10 19:16:30 20.6 20 13
003B5D72 2019-03-10 18:47:28 20.7 20 12.9
003B5D72 2019-03-10 18:18:17 20.7 20 12.8
003B5D72 2019-03-10 17:20:06 20.7 21 12.8
003B5D72 2019-03-10 16:50:57 20.7 21 12.8
003B5D72 2019-03-10 15:52:40 20.7 21 12.9
003B5D72 2019-03-10 15:23:35 20.7 22 12.7
003B5D72 2019-03-10 14:54:27 20.6 23 12.8
003B5D72 2019-03-10 14:25:20 20.6 23 12.8
003B5D72 2019-03-10 13:56:17 20.7 24 12.8
003B5D72 2019-03-10 13:27:06 20.6 24 12.7
003B5D72 2019-03-10 12:58:00 20.6 24 12.4
003B5D72 2019-03-10 12:28:52 20.6 24 11.9
003B5D72 2019-03-10 11:59:46 20.5 24 11.5
003B5D72 2019-03-10 11:30:38 20.5 24 11.1
003B5D72 2019-03-10 11:01:32 20.5 24 11.1
003B5D72 2019-03-10 10:32:22 20.5 24 10.7
003B5D72 2019-03-10 10:03:16 20.5 24 10.5
003B5D72 2019-03-10 09:34:10 20.5 24 10.5
003B5D72 2019-03-10 09:05:01 20.5 24 10.1
003B5D72 2019-03-10 08:35:51 20.5 24 9.3
003B5D72 2019-03-10 08:06:47 20.5 24 9.2
003B5D72 2019-03-10 07:37:40 20.6 24 9
003B5D72 2019-03-10 06:39:26 20.5 24 9
003B5D72 2019-03-10 05:41:13 20.6 24 9
003B5D72 2019-03-10 04:43:04 20.5 24 9.2
003B5D72 2019-03-10 04:14:02 20.5 24 9.4
003B5D72 2019-03-10 03:44:52 20.5 24 9.5
003B5D72 2019-03-10 03:15:47 20.6 24 10.4
003B5D72 2019-03-10 02:46:42 20.6 24 10.9
003B5D72 2019-03-10 01:48:31 20.6 24 11
003B5D72 2019-03-10 01:19:25 20.6 24 11.2
003B5D72 2019-03-09 22:53:14 20.6 24 11.5
003B5D72 2019-03-09 21:55:06 20.7 23 11.7
003B5D72 2019-03-09 21:26:01 20.7 23 12.4
003B5D72 2019-03-09 20:56:54 20.7 23 13
003B5D72 2019-03-09 20:27:50 20.7 23 12.9
003B5D72 2019-03-09 19:58:42 20.7 23 13.5
003B5D72 2019-03-09 19:29:36 20.7 23 13.4
003B5D72 2019-03-09 18:31:27 20.7 23 13.4
003B5D72 2019-03-09 18:02:21 20.8 23 13.4
003B5D72 2019-03-09 16:35:06 20.8 23 13.4
003B5D72 2019-03-09 15:36:54 20.8 24 13.5
003B5D72 2019-03-09 14:38:47 20.8 24 13.5
003B5D72 2019-03-09 14:09:40 20.8 24 13.5
003B5D72 2019-03-09 13:11:31 20.7 24 13.6
003B5D72 2019-03-09 12:42:23 20.7 24 13.8
003B5D72 2019-03-09 12:13:17 20.7 24 14
003B5D72 2019-03-09 11:44:12 20.6 24 14.1
003B5D72 2019-03-09 11:15:09 20.6 24 14.1
003B5D72 2019-03-09 10:46:02 20.6 24 14.2
003B5D72 2019-03-09 10:16:55 20.6 24 14.2
003B5D72 2019-03-09 09:18:49 20.6 25 14.2
003B5D72 2019-03-09 08:49:40 20.6 25 13.9
003B5D72 2019-03-09 08:20:36 20.6 25 13.7
003B5D72 2019-03-09 07:51:30 20.6 25 13.6
003B5D72 2019-03-09 07:22:22 20.6 26 13.6
003B5D72 2019-03-09 06:53:15 20.6 26 13.3
003B5D72 2019-03-09 06:24:09 20.6 26 13.2
003B5D72 2019-03-09 05:55:02 20.6 26 12.6
003B5D72 2019-03-09 05:25:56 20.6 26 12.2
003B5D72 2019-03-09 04:56:50 20.7 26 17.5
003B5D72 2019-03-09 04:27:45 20.7 26 17.3
003B5D72 2019-03-09 03:58:40 20.7 26 17.3
003B5D72 2019-03-09 03:29:38 20.7 26 17.4
003B5D72 2019-03-09 03:00:30 20.7 27 17.4
003B5D72 2019-03-09 02:31:20 20.7 27 17.4
003B5D72 2019-03-09 02:02:15 20.7 27 19.8
003B5D72 2019-03-09 01:03:59 20.8 27 19.8
003B5D72 2019-03-09 00:34:50 20.8 27 19.8
003B5D72 2019-03-09 00:05:44 20.8 27 19.8
003B5D72 2019-03-08 23:36:37 20.8 27 19.7
003B5D72 2019-03-08 23:06:54 20.8 27 19.7
003B5D72 2019-03-08 22:37:47 20.8 27 19.7
003B5D72 2019-03-08 22:08:44 20.9 27 19.7
003B5D72 2019-03-08 21:39:39 20.9 27 19.7
003B5D72 2019-03-08 21:10:32 20.9 27 19.6
003B5D72 2019-03-08 20:41:27 20.9 27 19.7
003B5D72 2019-03-08 20:12:22 20.9 27 19.7
003B5D72 2019-03-08 19:14:12 21 27 19.8
003B5D72 2019-03-08 18:45:11 21 27 19.8
003B5D72 2019-03-08 18:16:01 21 27 19.8
003B5D72 2019-03-08 17:46:57 21.1 27 19.8
003B5D72 2019-03-08 16:48:46 21.2 27 19.8
003B5D72 2019-03-08 16:19:44 21.1 27 19.8
003B5D72 2019-03-08 15:50:36 21.1 27 21.3
003B5D72 2019-03-08 15:21:32 21.1 27 19.7
003B5D72 2019-03-08 14:52:28 21.1 27 19.8
003B5D72 2019-03-08 14:23:20 21 27 19.9
003B5D72 2019-03-08 13:54:14 21 26 19.8
003B5D72 2019-03-08 13:25:08 20.9 26 19.8
003B5D72 2019-03-08 12:56:02 20.9 26 19.8
003B5D72 2019-03-08 12:26:58 20.9 26 17.5
003B5D72 2019-03-08 11:57:50 20.8 25 17.5
003B5D72 2019-03-08 11:28:43 20.8 25 17.6
003B5D72 2019-03-08 10:59:39 20.8 25 17.7
003B5D72 2019-03-08 10:01:23 20.8 25 17.7
003B5D72 2019-03-08 09:32:18 20.7 24 17.8
003B5D72 2019-03-08 09:03:07 20.7 24 17.7
003B5D72 2019-03-08 08:34:02 20.7 24 17.8
003B5D72 2019-03-08 08:04:52 20.7 24 17.8
003B5D72 2019-03-08 07:35:44 20.8 23 17.9
003B5D72 2019-03-08 07:06:41 20.7 23 18
003B5D72 2019-03-08 06:37:30 20.7 23 17.9
003B5D72 2019-03-08 06:08:22 20.7 23 17.9
003B5D72 2019-03-08 05:39:14 20.7 23 17.9
003B5D72 2019-03-08 05:10:06 20.7 23 17.9
003B5D72 2019-03-08 04:41:01 20.7 23 17.9
003B5D72 2019-03-08 04:11:54 20.7 23 17.9
003B5D72 2019-03-08 03:13:45 20.7 23 18
003B5D72 2019-03-08 02:44:39 20.7 23 13.7
003B5D72 2019-03-08 02:15:35 20.7 23 13.7
003B5D72 2019-03-08 01:17:23 20.7 23 13.6
003B5D72 2019-03-08 00:48:18 20.7 22 13.5
003B5D72 2019-03-08 00:19:12 20.8 22 13.6
003B5D72 2019-03-07 23:50:07 20.8 22 13.6
003B5D72 2019-03-07 23:21:02 20.8 22 13.7
003B5D72 2019-03-07 22:51:25 20.8 22 13.7
003B5D72 2019-03-07 22:22:21 20.8 22 13.6
003B5D72 2019-03-07 21:53:16 20.8 22 13.3
003B5D72 2019-03-07 21:24:13 20.8 22 13.1
003B5D72 2019-03-07 20:55:05 20.9 22 13.2
003B5D72 2019-03-07 20:26:01 20.9 22 13.3
003B5D72 2019-03-07 19:56:57 20.9 22 13
003B5D72 2019-03-07 19:27:55 20.9 22 13.1
003B5D72 2019-03-07 18:58:48 20.9 22 12.7
003B5D72 2019-03-07 18:29:42 21 22 12.5
003B5D72 2019-03-07 18:00:37 21.1 22 12.4
003B5D72 2019-03-07 17:31:32 21.1 22 11.8
003B5D72 2019-03-07 16:33:27 21.2 21 11.8
003B5D72 2019-03-07 16:04:18 21.2 21 11.8
003B5D72 2019-03-07 15:06:06 21.2 21 11.8
003B5D72 2019-03-07 14:36:59 21.2 20 11.8
003B5D72 2019-03-07 14:07:52 21.1 20 12.1
003B5D72 2019-03-07 13:38:45 21 19 12.1
003B5D72 2019-03-07 13:09:39 21 19 12.2
003B5D72 2019-03-07 12:40:35 20.9 19 12.2
003B5D72 2019-03-07 12:11:27 20.9 18 12.5
003B5D72 2019-03-07 11:13:19 20.9 18 13
003B5D72 2019-03-07 10:44:16 20.8 17 13.1
003B5D72 2019-03-07 10:15:10 20.8 17 13
003B5D72 2019-03-07 09:46:08 20.7 17 13.1
003B5D72 2019-03-07 09:17:03 20.7 16 13.2
003B5D72 2019-03-07 08:47:54 20.7 16 13.9
003B5D72 2019-03-07 08:18:49 20.7 16 14
003B5D72 2019-03-07 07:49:45 20.7 15 14
003B5D72 2019-03-07 07:20:38 20.7 15 13.9
003B5D72 2019-03-07 06:51:35 20.7 15 13.9
003B5D72 2019-03-07 06:22:28 20.7 15 14.2
003B5D72 2019-03-07 05:53:24 20.7 15 14.7
003B5D72 2019-03-07 05:24:20 20.7 14 14.8
003B5D72 2019-03-07 04:55:15 20.7 14 18.4
003B5D72 2019-03-07 04:26:09 20.7 14 18.4
003B5D72 2019-03-07 03:57:08 20.7 14 18.6
003B5D72 2019-03-07 03:27:58 20.7 14 18.6
003B5D72 2019-03-07 02:58:51 20.7 13 18.6
003B5D72 2019-03-07 02:29:46 20.7 13 18.6
003B5D72 2019-03-07 02:00:44 20.7 13 18.6
003B5D72 2019-03-07 01:31:35 20.7 13 18.5
003B5D72 2019-03-07 01:02:31 20.7 13 18.5
003B5D72 2019-03-07 00:33:27 20.7 13 18.6
003B5D72 2019-03-07 00:04:21 20.7 13 18.6
003B5D72 2019-03-06 23:35:15 20.7 12 18.5
003B5D72 2019-03-06 23:06:09 20.7 12 18.3
003B5D72 2019-03-06 22:36:31 20.7 12 18.5
003B5D72 2019-03-06 22:07:28 20.7 12 18.7
003B5D72 2019-03-06 21:38:20 20.7 12 18.7
003B5D72 2019-03-06 21:09:16 20.8 12 18.4
003B5D72 2019-03-06 20:40:12 20.7 12 18.5
003B5D72 2019-03-06 20:11:06 20.7 12 18.5
003B5D72 2019-03-06 19:42:01 20.7 11 18.6
003B5D72 2019-03-06 19:12:56 20.8 11 18.8
003B5D72 2019-03-06 18:43:51 20.8 11 18.7
003B5D72 2019-03-06 18:14:46 20.8 11 18.5
003B5D72 2019-03-06 17:45:42 20.9 11 18.5
003B5D72 2019-03-06 17:16:36 21 11 15.4
003B5D72 2019-03-06 16:47:30 21 11 15.6
003B5D72 2019-03-06 16:18:25 21 11 15.4
003B5D72 2019-03-06 15:49:24 21.1 11 15.4
003B5D72 2019-03-06 15:20:17 21.1 11 15.7
003B5D72 2019-03-06 14:22:07 21 11 15.9
003B5D72 2019-03-06 13:53:05 20.8 11 16.1
003B5D72 2019-03-06 13:23:57 20.7 11 16.3
003B5D72 2019-03-06 12:54:52 20.7 11 16.3
003B5D72 2019-03-06 11:56:43 20.7 11 16.2
003B5D72 2019-03-06 11:27:36 20.7 11 16.5
003B5D72 2019-03-06 10:58:31 20.8 11 16.8
003B5D72 2019-03-06 10:29:25 20.8 11 16.7
003B5D72 2019-03-06 10:00:20 20.6 11 16.9
003B5D72 2019-03-06 09:31:14 20.4 11 17.1
003B5D72 2019-03-06 09:02:08 20.4 11 17.4
003B5D72 2019-03-06 08:33:03 20.4 11 17.7
003B5D72 2019-03-06 08:04:02 20.4 12 17.6
003B5D72 2019-03-06 07:34:53 20.5 12 17.7
003B5D72 2019-03-06 07:05:44 20.5 12 17.7
003B5D72 2019-03-06 06:36:36 20.5 12 17.9
003B5D72 2019-03-06 06:07:27 20.5 12 20
003B5D72 2019-03-06 05:38:20 20.5 12 20.2
003B5D72 2019-03-06 05:09:18 20.5 12 20.2
003B5D72 2019-03-06 04:40:07 20.5 12 20.1
003B5D72 2019-03-06 04:11:00 20.5 12 20
003B5D72 2019-03-06 03:41:53 20.5 12 20
003B5D72 2019-03-06 03:12:47 20.6 12 20.1
003B5D72 2019-03-06 02:43:37 20.6 12 20
003B5D72 2019-03-06 02:14:29 20.5 13 21.4
003B5D72 2019-03-06 01:45:21 20.6 13 21.3
003B5D72 2019-03-06 01:16:15 20.6 13 21.4
003B5D72 2019-03-06 00:47:05 20.6 13 21.3
003B5D72 2019-03-06 00:17:57 20.7 13 21.3
003B5D72 2019-03-05 23:48:51 20.7 13 21.3
003B5D72 2019-03-05 23:19:44 20.7 13 21.3
003B5D72 2019-03-05 22:50:38 20.7 13 21.2
003B5D72 2019-03-05 22:20:59 20.7 13 21.1
003B5D72 2019-03-05 21:51:54 20.8 13 20.9
003B5D72 2019-03-05 21:22:49 20.8 13 20.8
003B5D72 2019-03-05 20:53:42 20.8 13 20.7
003B5D72 2019-03-05 20:24:36 20.9 13 20.6
003B5D72 2019-03-05 19:55:31 20.9 13 20.6
003B5D72 2019-03-05 19:26:27 20.9 13 20.6
003B5D72 2019-03-05 18:57:22 20.8 13 20.5
003B5D72 2019-03-05 18:28:17 20.9 13 18.6
003B5D72 2019-03-05 17:59:12 21 14 18.3
003B5D72 2019-03-05 17:30:08 21.1 14 18.3
003B5D72 2019-03-05 17:01:02 21.2 14 18.4
003B5D72 2019-03-05 16:31:58 21.3 15 18.4
003B5D72 2019-03-05 16:02:53 21.3 15 18.5
003B5D72 2019-03-05 15:33:47 21.3 16 18.3
003B5D72 2019-03-05 15:04:42 21.1 16 18.3
003B5D72 2019-03-05 14:35:38 20.8 16 14.6
003B5D72 2019-03-05 14:06:33 20.7 17 14.7
003B5D72 2019-03-05 13:37:28 20.7 17 14.3
003B5D72 2019-03-05 13:08:22 20.7 17 14.5
003B5D72 2019-03-05 12:39:19 20.7 17 14.4
003B5D72 2019-03-05 12:10:12 20.6 17 14.1
003B5D72 2019-03-05 11:41:06 20.6 17 14.3
003B5D72 2019-03-05 11:11:59 20.6 17 14.4
003B5D72 2019-03-05 10:42:53 20.6 18 14.3
003B5D72 2019-03-05 10:13:47 20.5 18 14.1
003B5D72 2019-03-05 09:44:44 20.5 18 13.9
003B5D72 2019-03-05 09:15:37 20.5 18 13.6
003B5D72 2019-03-05 08:46:29 20.5 18 13.5
003B5D72 2019-03-05 08:17:25 20.5 18 13.5
003B5D72 2019-03-05 07:48:17 20.5 19 13.5
003B5D72 2019-03-05 07:19:10 20.5 19 12.8
003B5D72 2019-03-05 06:50:03 20.5 19 12.9
003B5D72 2019-03-05 06:20:57 20.5 19 13
003B5D72 2019-03-05 05:51:50 20.5 19 12.7
003B5D72 2019-03-05 05:22:45 20.5 19 12.5
003B5D72 2019-03-05 04:53:39 20.5 19 12.4
003B5D72 2019-03-05 04:24:35 20.5 19 11.8
003B5D72 2019-03-05 03:55:32 20.5 19 11.8
003B5D72 2019-03-05 03:26:22 20.5 19 12.1
003B5D72 2019-03-05 02:57:17 20.5 19 11.9
003B5D72 2019-03-05 02:28:11 20.5 19 11.7
003B5D72 2019-03-05 01:59:05 20.5 19 11.7
003B5D72 2019-03-05 01:29:59 20.5 19 11.4
003B5D72 2019-03-05 01:00:53 20.5 19 11.3
003B5D72 2019-03-05 00:31:46 20.5 19 17.2
003B5D72 2019-03-05 00:02:46 20.5 19 17.1
003B5D72 2019-03-04 23:33:36 20.5 18 17
003B5D72 2019-03-04 23:04:31 20.5 18 17
003B5D72 2019-03-04 22:35:26 20.5 18 17
003B5D72 2019-03-04 22:05:50 20.5 18 17.2
003B5D72 2019-03-04 21:36:45 20.5 18 17.3
003B5D72 2019-03-04 21:07:38 20.5 18 17.3
003B5D72 2019-03-04 20:38:33 20.5 18 17.3
003B5D72 2019-03-04 20:09:31 20.5 18 17.3
003B5D72 2019-03-04 19:40:27 20.5 18 17.3
003B5D72 2019-03-04 19:11:19 20.5 18 17.3
003B5D72 2019-03-04 18:42:14 20.5 18 17.2
003B5D72 2019-03-04 18:13:08 20.5 18 17.2
003B5D72 2019-03-04 17:44:01 20.6 18 17.2
003B5D72 2019-03-04 17:14:55 20.6 18 17.3
003B5D72 2019-03-04 16:45:50 20.6 17 17.4
003B5D72 2019-03-04 16:16:46 20.6 17 17.5
003B5D72 2019-03-04 15:18:30 20.5 17 17.6
003B5D72 2019-03-04 14:49:23 20.5 17 17.6
003B5D72 2019-03-04 14:20:17 20.5 17 17.6
003B5D72 2019-03-04 13:51:12 20.5 17 17.6
003B5D72 2019-03-04 13:22:06 20.5 17 17.6
003B5D72 2019-03-04 12:52:59 20.5 17 17.7
003B5D72 2019-03-04 12:23:52 20.4 17 12.8
003B5D72 2019-03-04 11:25:40 20.4 17 13.1
003B5D72 2019-03-04 10:56:35 20.3 17 13.2
003B5D72 2019-03-04 10:27:29 20.3 17 17.8
003B5D72 2019-03-04 09:58:23 20.3 17 17.8
003B5D72 2019-03-04 09:29:17 20.2 17 17.7
003B5D72 2019-03-04 09:00:12 20.1 17 17.6
003B5D72 2019-03-04 08:31:06 20.1 17 17.7
003B5D72 2019-03-04 08:02:03 20 17 17.6
003B5D72 2019-03-04 07:32:55 20 18 17.6
003B5D72 2019-03-04 06:34:45 20 18 17.8
003B5D72 2019-03-04 06:05:41 20 18 17.8
003B5D72 2019-03-04 05:36:36 20 18 17.8
003B5D72 2019-03-04 05:07:28 20.1 18 17.8
003B5D72 2019-03-04 04:38:21 20.1 17 17.8
003B5D72 2019-03-04 04:09:16 20.1 17 17.9
003B5D72 2019-03-04 03:40:07 20.1 17 17.8
003B5D72 2019-03-04 03:11:00 20.1 17 17.7
003B5D72 2019-03-04 02:41:55 20.1 17 17.7
003B5D72 2019-03-04 02:12:49 20.1 17 17.6
003B5D72 2019-03-04 01:43:45 20.1 17 17.7
003B5D72 2019-03-04 01:14:41 20.1 17 17.8
003B5D72 2019-03-04 00:45:36 20.1 17 17.9
003B5D72 2019-03-04 00:16:32 20.1 17 17.9
003B5D72 2019-03-03 23:47:28 20.1 17 17.8
003B5D72 2019-03-03 23:18:20 20.1 17 17.9
003B5D72 2019-03-03 22:49:16 20.1 17 17.8
003B5D72 2019-03-03 22:20:11 20.1 17 17.7
003B5D72 2019-03-03 21:50:33 20.1 17 13
003B5D72 2019-03-03 21:21:27 20.1 17 13.1
003B5D72 2019-03-03 20:52:22 20.1 17 13.1
003B5D72 2019-03-03 20:23:16 20.1 18 13.1
003B5D72 2019-03-03 19:54:07 20.1 18 13.1
003B5D72 2019-03-03 19:24:58 20.2 18 13.3
003B5D72 2019-03-03 18:55:51 20.2 18 13.5
003B5D72 2019-03-03 18:26:42 20.2 18 13.4
003B5D72 2019-03-03 17:57:34 20.2 18 14.1
003B5D72 2019-03-03 17:28:27 20.2 18 14.5
003B5D72 2019-03-03 16:59:17 20.2 18 14.6
003B5D72 2019-03-03 16:30:13 20.2 18 14.6
003B5D72 2019-03-03 16:01:02 20.2 18 14.3
003B5D72 2019-03-03 15:31:55 20.3 18 14.3
003B5D72 2019-03-03 15:02:50 20.3 18 14.7
003B5D72 2019-03-03 14:33:40 20.3 18 14.7
003B5D72 2019-03-03 14:04:31 20.2 18 15.2
003B5D72 2019-03-03 13:35:23 20.2 18 14.9
003B5D72 2019-03-03 13:06:17 20.2 18 14.9
003B5D72 2019-03-03 12:37:07 20.2 18 14.8
003B5D72 2019-03-03 12:08:03 20.2 18 14.9
003B5D72 2019-03-03 11:38:54 20.2 18 14.9
003B5D72 2019-03-03 11:09:46 20.2 18 15.1
003B5D72 2019-03-03 10:40:41 20.2 18 15.1
003B5D72 2019-03-03 10:11:35 20.2 18 15.1
003B5D72 2019-03-03 09:42:30 20.2 18 15.1
003B5D72 2019-03-03 09:13:22 20.2 18 15.9
003B5D72 2019-03-03 08:44:16 20.2 18 16
003B5D72 2019-03-03 08:15:13 20.2 18 16.1
003B5D72 2019-03-03 07:46:03 20.2 18 16.2
003B5D72 2019-03-03 07:16:55 20.2 18 16.2
003B5D72 2019-03-03 06:47:47 20.3 18 16.3
003B5D72 2019-03-03 06:18:38 20.3 18 16.1
003B5D72 2019-03-03 05:49:31 20.3 18 15.7
003B5D72 2019-03-03 05:20:24 20.3 18 15.4
003B5D72 2019-03-03 04:51:17 20.3 18 15.5
003B5D72 2019-03-03 04:22:09 20.3 18 15.5
003B5D72 2019-03-03 03:52:59 20.3 18 15.7
003B5D72 2019-03-03 03:23:52 20.3 18 15.7
003B5D72 2019-03-03 02:54:42 20.3 18 15.7
003B5D72 2019-03-03 02:25:37 20.3 18 15.9
003B5D72 2019-03-03 01:56:24 20.3 18 15.5
003B5D72 2019-03-03 01:27:18 20.3 18 15.5
003B5D72 2019-03-03 00:58:12 20.3 18 15.4
003B5D72 2019-03-03 00:29:05 20.4 18 15.3
003B5D72 2019-03-03 00:00:01 20.4 18 15.3
003B5D72 2019-03-02 23:30:53 20.4 18 15.3
003B5D72 2019-03-02 23:01:47 20.3 18 15.3
003B5D72 2019-03-02 22:32:43 20.4 18 15.4
003B5D72 2019-03-02 22:03:34 20.4 17 15.5
003B5D72 2019-03-02 21:33:56 20.4 17 18.3
003B5D72 2019-03-02 21:04:49 20.4 17 18.3
003B5D72 2019-03-02 20:35:44 20.4 17 20.3
003B5D72 2019-03-02 20:06:41 20.4 17 20.2
003B5D72 2019-03-02 19:37:35 20.4 17 20.2
003B5D72 2019-03-02 19:08:29 20.5 17 20.2
003B5D72 2019-03-02 18:39:21 20.4 17 20.2
003B5D72 2019-03-02 18:10:15 20.5 17 21.6
003B5D72 2019-03-02 17:41:08 20.5 17 21.6
003B5D72 2019-03-02 17:12:01 20.5 17 21.6
003B5D72 2019-03-02 16:42:55 20.6 17 21.6
003B5D72 2019-03-02 16:13:48 20.7 16 21.6
003B5D72 2019-03-02 15:44:41 20.7 16 22.7
003B5D72 2019-03-02 15:15:34 20.7 17 22.6
003B5D72 2019-03-02 14:46:27 20.4 16 22.6
003B5D72 2019-03-02 14:17:18 20.4 16 22.5
003B5D72 2019-03-02 13:48:12 20.4 16 22.6
003B5D72 2019-03-02 12:49:59 20.4 16 22.6
003B5D72 2019-03-02 12:20:54 20.4 16 22.6
003B5D72 2019-03-02 11:51:45 20.4 16 22.6
003B5D72 2019-03-02 11:22:38 20.4 16 22.6
003B5D72 2019-03-02 10:53:31 20.4 16 22.6
003B5D72 2019-03-02 10:24:24 20.4 15 22.6
003B5D72 2019-03-02 09:55:17 20.4 15 22.6
003B5D72 2019-03-02 09:26:10 20.4 15 21.6
003B5D72 2019-03-02 08:57:04 20.4 15 21.5
003B5D72 2019-03-02 08:27:56 20.4 15 21.6
003B5D72 2019-03-02 07:58:49 20.4 15 20.2
003B5D72 2019-03-02 07:29:42 20.4 15 20.4
003B5D72 2019-03-02 07:00:37 20.4 15 20.4
003B5D72 2019-03-02 06:31:31 20.4 15 20.4
003B5D72 2019-03-02 06:02:26 20.5 15 20.4
003B5D72 2019-03-02 05:33:20 20.5 15 18.5
003B5D72 2019-03-02 05:04:14 20.5 14 18.4
003B5D72 2019-03-02 04:35:10 20.5 14 18.8
003B5D72 2019-03-02 04:06:01 20.5 14 18.8
003B5D72 2019-03-02 03:36:52 20.5 14 18.7
003B5D72 2019-03-02 03:07:44 20.5 14 15.8
003B5D72 2019-03-02 02:38:35 20.5 14 15.8
003B5D72 2019-03-02 02:09:26 20.5 14 15.8
003B5D72 2019-03-02 01:40:19 20.6 14 15.8
003B5D72 2019-03-02 01:11:13 20.6 14 15.9
003B5D72 2019-03-02 00:42:08 20.6 14 15.8
003B5D72 2019-03-02 00:13:01 20.7 13 15.9
003B5D72 2019-03-01 23:43:54 20.7 13 15.9
003B5D72 2019-03-01 23:14:50 20.7 13 16.7
003B5D72 2019-03-01 22:45:42 20.8 13 16.7
003B5D72 2019-03-01 22:16:38 20.9 13 16.5
003B5D72 2019-03-01 21:47:31 20.9 13 16.6
003B5D72 2019-03-01 20:48:39 21 13 16.7
003B5D72 2019-03-01 20:19:32 21 13 16.8
003B5D72 2019-03-01 19:50:29 21 13 16.8
003B5D72 2019-03-01 18:52:18 20.9 13 17
003B5D72 2019-03-01 18:23:13 21 13 16.6
003B5D72 2019-03-01 17:54:05 21.1 13 16.6
003B5D72 2019-03-01 17:25:00 21.2 13 16.5
003B5D72 2019-03-01 16:55:56 21.4 14 16.5
003B5D72 2019-03-01 16:26:54 21.5 14 16.6
003B5D72 2019-03-01 15:57:45 21.5 14 17.1
003B5D72 2019-03-01 15:28:41 21.5 15 17.1
003B5D72 2019-03-01 14:59:37 21.3 15 17.1
003B5D72 2019-03-01 14:30:28 21 15 17.4
003B5D72 2019-03-01 14:01:21 21 15 17.3
003B5D72 2019-03-01 13:32:15 20.9 15 17.4
003B5D72 2019-03-01 13:03:08 20.9 15 17.6
003B5D72 2019-03-01 12:34:03 21 16 17.6
003B5D72 2019-03-01 12:04:56 21 16 17.7
003B5D72 2019-03-01 11:35:50 21 16 17.6
003B5D72 2019-03-01 11:06:47 21.1 17 17.7
003B5D72 2019-03-01 10:37:36 21 17 17.7
003B5D72 2019-03-01 10:08:28 20.9 17 19.6
003B5D72 2019-03-01 09:39:22 20.7 17 19.6
003B5D72 2019-03-01 09:10:14 20.5 17 19.9
003B5D72 2019-03-01 08:41:07 20.5 17 19.8
003B5D72 2019-03-01 08:12:00 20.5 17 21.2
003B5D72 2019-03-01 07:42:55 20.5 18 21.2
003B5D72 2019-03-01 07:13:46 20.6 18 21.2
003B5D72 2019-03-01 06:44:40 20.6 18 21.3
003B5D72 2019-03-01 06:15:33 20.6 18 21.4
003B5D72 2019-03-01 05:46:29 20.6 18 21.4
003B5D72 2019-03-01 05:17:25 20.6 19 22.5
003B5D72 2019-03-01 04:48:14 20.6 19 22.5
003B5D72 2019-03-01 04:19:08 20.7 19 22.3
003B5D72 2019-03-01 03:50:02 20.6 19 22.2
003B5D72 2019-03-01 03:20:56 20.6 20 22.3
003B5D72 2019-03-01 02:51:50 20.7 20 22.2
003B5D72 2019-03-01 02:22:45 20.7 20 22.1
003B5D72 2019-03-01 01:53:36 20.7 20 22.1
003B5D72 2019-03-01 01:24:27 20.7 21 22
003B5D72 2019-03-01 00:55:21 20.7 21 22
003B5D72 2019-03-01 00:26:15 20.7 21 22
003B5D72 2019-02-28 23:57:10 20.7 22 22
003B5D72 2019-02-28 23:28:07 20.7 22 21.9
003B5D72 2019-02-28 22:58:57 20.7 22 21.9
003B5D72 2019-02-28 22:29:51 20.8 22 20.7
003B5D72 2019-02-28 22:00:45 20.8 23 20.6
003B5D72 2019-02-28 21:31:38 20.9 23 20.4
003B5D72 2019-02-28 21:01:52 20.9 23 20.4
003B5D72 2019-02-28 20:32:44 20.9 23 18.5
003B5D72 2019-02-28 20:03:40 20.9 23 18.5
003B5D72 2019-02-28 19:34:34 20.9 23 18.7
003B5D72 2019-02-28 19:05:28 21 24 18.4
003B5D72 2019-02-28 18:36:22 21 24 18.3
003B5D72 2019-02-28 18:07:16 21.1 24 20.2
003B5D72 2019-02-28 17:38:10 21.3 25 18.1
003B5D72 2019-02-28 17:09:06 21.4 25 18.1
003B5D72 2019-02-28 16:40:01 21.5 26 18.1
003B5D72 2019-02-28 15:41:53 21.5 25 18.1
003B5D72 2019-02-28 15:12:49 21.3 25 17.9
003B5D72 2019-02-28 14:43:45 21.3 25 17.8
003B5D72 2019-02-28 14:14:34 21.3 24 17.8
003B5D72 2019-02-28 13:45:33 21.4 24 17.7
003B5D72 2019-02-28 13:16:26 21.4 24 17.7
003B5D72 2019-02-28 12:18:17 21.3 24 17.7
003B5D72 2019-02-28 11:49:13 21.3 24 17.8
003B5D72 2019-02-28 11:20:10 21.2 24 17.8
003B5D72 2019-02-28 10:51:04 21.2 23 17.7
003B5D72 2019-02-28 10:22:00 21 23 19.9
003B5D72 2019-02-28 09:52:54 20.9 22 19.9
003B5D72 2019-02-28 08:54:39 20.8 22 19.9
003B5D72 2019-02-28 08:25:36 20.7 22 19.9
003B5D72 2019-02-28 07:27:23 20.7 22 19.9
003B5D72 2019-02-28 06:58:18 20.8 22 19.9
003B5D72 2019-02-28 06:29:14 20.7 22 19.9
003B5D72 2019-02-28 06:00:09 20.8 22 19.9
003B5D72 2019-02-28 05:31:05 20.8 22 19.8
003B5D72 2019-02-28 05:02:04 20.8 22 19.8
003B5D72 2019-02-28 04:32:56 20.8 22 19.7
003B5D72 2019-02-28 04:03:51 20.8 22 17.3
003B5D72 2019-02-28 03:34:47 20.8 22 17.4
003B5D72 2019-02-28 03:05:39 20.8 22 17.5
003B5D72 2019-02-28 02:36:33 20.8 22 17.5
003B5D72 2019-02-28 02:07:25 20.8 22 17.8
003B5D72 2019-02-28 01:38:19 20.8 22 17.8
003B5D72 2019-02-28 01:09:13 20.8 22 17.8
003B5D72 2019-02-28 00:40:10 20.8 22 17.8
003B5D72 2019-02-28 00:11:00 20.9 22 17.9
003B5D72 2019-02-27 23:41:52 20.9 22 18.6
003B5D72 2019-02-27 23:12:44 20.9 23 19.2
003B5D72 2019-02-27 22:14:35 21 23 19.1
003B5D72 2019-02-27 21:45:29 21 23 19.3
003B5D72 2019-02-27 21:16:20 21 23 19.8
003B5D72 2019-02-27 20:46:41 21.1 23 18
003B5D72 2019-02-27 20:17:35 21.1 23 18.2
003B5D72 2019-02-27 19:48:30 21.1 23 18.5
003B5D72 2019-02-27 19:19:24 21.2 23 18.9
003B5D72 2019-02-27 18:50:18 21.2 24 19.5
003B5D72 2019-02-27 18:21:12 21.3 24 19.8
003B5D72 2019-02-27 17:52:06 21.5 24 19.9
003B5D72 2019-02-27 17:23:01 21.7 25 19.9
003B5D72 2019-02-27 16:53:56 21.8 25 20.3
003B5D72 2019-02-27 16:24:54 21.8 26 20.6
003B5D72 2019-02-27 15:55:48 21.8 26 20.9
003B5D72 2019-02-27 15:26:42 21.7 26 21.3
003B5D72 2019-02-27 14:57:36 21.7 26 21.5
003B5D72 2019-02-27 14:28:30 21.5 26 21.8
003B5D72 2019-02-27 13:59:25 21.4 25 21.9
003B5D72 2019-02-27 13:30:21 21.3 25 22.2
003B5D72 2019-02-27 13:01:13 21.3 25 22.3
003B5D72 2019-02-27 12:32:08 21.3 25 22.5
003B5D72 2019-02-27 12:03:02 21.3 25 22.5
003B5D72 2019-02-27 11:33:56 21.2 25 22.5
003B5D72 2019-02-27 11:04:49 21.2 25 22.3
003B5D72 2019-02-27 10:35:44 21.2 25 22.4
003B5D72 2019-02-27 10:06:38 21.1 25 22.5
003B5D72 2019-02-27 09:37:33 21 24 22.4
003B5D72 2019-02-27 09:08:28 20.9 24 22.4
003B5D72 2019-02-27 08:39:22 20.9 24 22.5
003B5D72 2019-02-27 08:10:16 20.9 24 22.6
003B5D72 2019-02-27 07:41:10 20.9 23 22.6
003B5D72 2019-02-27 07:12:03 20.9 23 22.7
003B5D72 2019-02-27 06:42:55 20.9 23 22.7
003B5D72 2019-02-27 06:13:49 20.9 23 22.7
003B5D72 2019-02-27 05:44:43 20.9 23 22.9
003B5D72 2019-02-27 05:15:38 20.9 23 23
003B5D72 2019-02-27 04:46:33 21 23 22.9
003B5D72 2019-02-27 04:17:27 21 23 23.6
003B5D72 2019-02-27 03:48:21 21 23 23.6
003B5D72 2019-02-27 03:19:15 21 23 23.6
003B5D72 2019-02-27 02:50:10 21 23 23.6
003B5D72 2019-02-27 02:21:06 21 23 23.5
003B5D72 2019-02-27 01:52:02 21.1 23 23.5
003B5D72 2019-02-27 01:22:56 21.1 23 23.4
003B5D72 2019-02-27 00:53:51 21.1 24 23.4
003B5D72 2019-02-27 00:24:45 21.2 24 23.3
003B5D72 2019-02-26 23:55:38 21.2 24 23.3
003B5D72 2019-02-26 23:26:32 21.3 24 23.2
003B5D72 2019-02-26 22:57:26 21.3 24 23.2
003B5D72 2019-02-26 22:28:20 21.3 24 23.2
003B5D72 2019-02-26 21:59:15 21.4 24 23.1
003B5D72 2019-02-26 21:30:10 21.4 24 23
003B5D72 2019-02-26 21:01:06 21.5 24 23.7
003B5D72 2019-02-26 20:31:25 21.5 24 24.7
003B5D72 2019-02-26 20:02:20 21.6 24 25.1
003B5D72 2019-02-26 19:33:15 21.6 24 25.6
003B5D72 2019-02-26 19:04:10 21.7 24 25.9
003B5D72 2019-02-26 18:35:04 21.8 24 26.3
003B5D72 2019-02-26 18:05:58 21.9 24 26.6
003B5D72 2019-02-26 17:36:51 22 24 26.9
003B5D72 2019-02-26 17:07:46 22.1 24 27.2
003B5D72 2019-02-26 16:38:41 22.1 25 27.2
003B5D72 2019-02-26 16:09:36 22 25 27.2
003B5D72 2019-02-26 15:40:31 21.9 25 27.4
003B5D72 2019-02-26 15:11:25 21.8 25 27.6
003B5D72 2019-02-26 14:42:18 21.7 25 27.9
003B5D72 2019-02-26 14:13:12 21.7 24 28.1
003B5D72 2019-02-26 13:44:05 21.6 25 28.3
003B5D72 2019-02-26 13:14:57 21.6 25 28.5
003B5D72 2019-02-26 12:45:50 21.6 25 28.8
003B5D72 2019-02-26 12:16:43 21.5 25 29
003B5D72 2019-02-26 11:47:36 21.4 25 29.2
003B5D72 2019-02-26 11:18:30 21.4 24 29.4
003B5D72 2019-02-26 10:49:23 21.3 25 29.5
003B5D72 2019-02-26 10:20:17 21.1 24 29.7
003B5D72 2019-02-26 09:51:10 21.1 24 29.9
003B5D72 2019-02-26 09:22:02 20.9 24 29.9
003B5D72 2019-02-26 08:52:55 20.9 23 29.9
003B5D72 2019-02-26 08:23:50 20.9 23 29.9
003B5D72 2019-02-26 07:54:44 20.9 23 29.9
003B5D72 2019-02-26 07:25:39 20.9 23 29.9
003B5D72 2019-02-26 06:56:33 20.9 23 29.9
003B5D72 2019-02-26 06:27:27 20.9 23 29.9
003B5D72 2019-02-26 05:58:20 20.9 23 29.9
003B5D72 2019-02-26 05:29:14 20.9 23 29.9
003B5D72 2019-02-26 05:00:06 20.9 22 29.7
003B5D72 2019-02-26 04:31:00 20.9 22 29.7
003B5D72 2019-02-26 04:01:52 20.9 22 29.8
003B5D72 2019-02-26 03:32:45 20.9 22 29.7
003B5D72 2019-02-26 03:03:38 21 22 29.5
003B5D72 2019-02-26 02:34:32 21 22 29.4
003B5D72 2019-02-26 02:05:26 21 22 29.2
003B5D72 2019-02-26 01:36:21 21 22 29
003B5D72 2019-02-26 01:07:15 21 22 28.8
003B5D72 2019-02-26 00:38:08 21 22 28.6
003B5D72 2019-02-26 00:09:02 21.1 21 28.4
003B5D72 2019-02-25 23:39:57 21.1 21 28.2
003B5D72 2019-02-25 23:10:51 21.1 21 27.9
003B5D72 2019-02-25 22:41:45 21.2 21 27.7
003B5D72 2019-02-25 22:12:39 21.2 21 27.4
003B5D72 2019-02-25 21:43:33 21.3 21 27.2
003B5D72 2019-02-25 21:14:30 21.3 21 26.8
003B5D72 2019-02-25 20:45:23 21.4 21 26.5
003B5D72 2019-02-25 20:15:46 21.4 21 25.6
003B5D72 2019-02-25 19:46:40 21.5 21 25.2
003B5D72 2019-02-25 19:17:35 21.5 21 24.7
003B5D72 2019-02-25 18:48:29 21.6 21 24.1
003B5D72 2019-02-25 18:19:24 21.7 21 23.5
003B5D72 2019-02-25 17:50:18 21.7 21 22.6
003B5D72 2019-02-25 17:21:12 21.7 22 22.6
003B5D72 2019-02-25 16:52:06 21.7 22 22.6
003B5D72 2019-02-25 16:22:59 21.8 22 21.5
003B5D72 2019-02-25 15:53:53 21.8 22 21.5
003B5D72 2019-02-25 15:24:48 21.8 22 21.4
003B5D72 2019-02-25 14:55:41 21.7 23 21.4
003B5D72 2019-02-25 14:26:34 21.5 22 21.3
003B5D72 2019-02-25 13:57:30 21.5 22 21.4
003B5D72 2019-02-25 13:28:22 21.4 22 21.3
003B5D72 2019-02-25 12:59:15 21.3 22 21.1
003B5D72 2019-02-25 12:30:09 21.2 22 21
003B5D72 2019-02-25 12:01:04 21.2 22 21
003B5D72 2019-02-25 11:32:00 21.1 23 20.6
003B5D72 2019-02-25 11:02:51 21 23 20.7
003B5D72 2019-02-25 10:33:44 20.9 23 20.8
003B5D72 2019-02-25 10:04:37 20.8 22 21
003B5D72 2019-02-25 09:35:29 20.7 22 21.2
003B5D72 2019-02-25 09:06:23 20.7 22 21.3
003B5D72 2019-02-25 08:37:14 20.6 22 21.4
003B5D72 2019-02-25 08:08:07 20.6 22 21.4
003B5D72 2019-02-25 07:39:01 20.6 22 21.3
003B5D72 2019-02-25 07:09:55 20.6 22 21.4
003B5D72 2019-02-25 06:40:48 20.7 22 21.6
003B5D72 2019-02-25 06:11:42 20.6 22 22.6
003B5D72 2019-02-25 05:42:36 20.6 22 21.6
003B5D72 2019-02-25 05:13:31 20.6 22 21.9
003B5D72 2019-02-25 04:44:27 20.7 22 21.9
003B5D72 2019-02-25 04:15:19 20.7 22 21.9
003B5D72 2019-02-25 03:46:13 20.7 22 22
003B5D72 2019-02-25 03:17:07 20.7 22 22
003B5D72 2019-02-25 02:48:02 20.7 22 22
003B5D72 2019-02-25 02:18:54 20.7 23 21.9
003B5D72 2019-02-25 01:49:48 20.7 23 22
003B5D72 2019-02-25 01:20:42 20.7 23 22.1
003B5D72 2019-02-25 00:51:37 20.7 23 22.3
003B5D72 2019-02-25 00:22:31 20.7 23 22.3
003B5D72 2019-02-24 23:53:26 20.7 23 22.2
003B5D72 2019-02-24 23:24:19 20.7 24 22.5
003B5D72 2019-02-24 22:55:14 20.7 24 22.4
003B5D72 2019-02-24 22:26:07 20.7 24 22.4
003B5D72 2019-02-24 21:57:00 20.7 24 22.3
003B5D72 2019-02-24 21:27:52 20.8 24 22.3
003B5D72 2019-02-24 20:58:44 20.8 24 22.4
003B5D72 2019-02-24 20:29:37 20.8 24 22.5
003B5D72 2019-02-24 19:59:52 20.8 24 22.7
003B5D72 2019-02-24 19:30:46 20.8 24 22.7
003B5D72 2019-02-24 19:01:40 20.8 24 22.8
003B5D72 2019-02-24 18:32:33 20.8 24 21.8
003B5D72 2019-02-24 18:03:26 20.8 23 22
003B5D72 2019-02-24 17:34:20 20.8 23 21.8
003B5D72 2019-02-24 17:05:14 20.8 23 21.5
003B5D72 2019-02-24 16:36:08 20.8 23 21.5
003B5D72 2019-02-24 16:07:02 20.8 23 21.5
003B5D72 2019-02-24 15:37:57 20.8 23 21.7
003B5D72 2019-02-24 15:08:53 20.8 23 21.7
003B5D72 2019-02-24 14:39:49 20.8 23 21.7
003B5D72 2019-02-24 14:10:42 20.8 23 21.7
003B5D72 2019-02-24 13:41:36 20.8 23 21.5
003B5D72 2019-02-24 13:12:31 20.8 22 21.3
003B5D72 2019-02-24 12:43:26 20.8 22 21.3
003B5D72 2019-02-24 12:14:17 20.8 22 21.4
003B5D72 2019-02-24 11:45:10 20.8 22 21.4
003B5D72 2019-02-24 11:16:01 20.8 22 21.7
003B5D72 2019-02-24 10:46:54 20.8 22 21.7
003B5D72 2019-02-24 10:17:47 20.8 22 21.7
003B5D72 2019-02-24 09:48:41 20.8 22 21.7
003B5D72 2019-02-24 09:19:32 20.8 22 21.8
003B5D72 2019-02-24 08:50:24 20.8 22 21.6
003B5D72 2019-02-24 08:21:18 20.8 22 21.8
003B5D72 2019-02-24 07:52:10 20.8 22 21.5
003B5D72 2019-02-24 07:23:00 20.8 22 21.4
003B5D72 2019-02-24 06:53:52 20.8 22 21.4
003B5D72 2019-02-24 06:24:43 20.8 21 21.4
003B5D72 2019-02-24 05:55:36 20.9 21 21.2
003B5D72 2019-02-24 05:26:30 20.8 21 21.4
003B5D72 2019-02-24 04:57:24 20.9 21 21.6
003B5D72 2019-02-24 04:28:16 20.9 21 21.6
003B5D72 2019-02-24 03:59:09 20.9 21 21.7
003B5D72 2019-02-24 03:30:03 20.9 21 21.6
003B5D72 2019-02-24 03:00:56 20.9 21 21.5
003B5D72 2019-02-24 02:31:49 20.9 21 21.6
003B5D72 2019-02-24 02:02:43 20.9 21 21.8
003B5D72 2019-02-24 01:33:37 20.9 21 21.7
003B5D72 2019-02-24 01:04:33 20.9 21 21.8
003B5D72 2019-02-24 00:35:24 21 21 21.9
003B5D72 2019-02-24 00:06:17 20.9 21 21.8
003B5D72 2019-02-23 23:37:11 21 21 21.6
003B5D72 2019-02-23 23:08:04 21 20 21.5
003B5D72 2019-02-23 22:38:57 21 20 21.5
003B5D72 2019-02-23 22:09:51 21 20 21.8
003B5D72 2019-02-23 21:40:44 21.1 20 21.7
003B5D72 2019-02-23 21:11:37 21.1 20 21.6
003B5D72 2019-02-23 20:42:30 21.1 20 21.4
003B5D72 2019-02-23 20:13:22 21.2 20 21.2
003B5D72 2019-02-23 19:43:42 21.2 19 21.3
003B5D72 2019-02-23 19:14:34 21.2 19 21.3
003B5D72 2019-02-23 18:45:28 21.2 19 21.5
003B5D72 2019-02-23 18:16:21 21.3 19 21.5
003B5D72 2019-02-23 17:47:14 21.3 18 21.5
003B5D72 2019-02-23 17:18:09 21.3 18 21.3
003B5D72 2019-02-23 16:49:02 21.3 18 21.4
003B5D72 2019-02-23 16:19:54 21.3 18 22.3
003B5D72 2019-02-23 15:50:47 21.2 17 22.4
003B5D72 2019-02-23 15:21:40 21.1 17 22.5
003B5D72 2019-02-23 14:52:34 21 17 22.5
003B5D72 2019-02-23 14:23:27 20.9 17 22.4
003B5D72 2019-02-23 13:54:20 20.9 17 22.6
003B5D72 2019-02-23 13:25:14 20.9 16 22.5
003B5D72 2019-02-23 12:56:03 20.9 16 22.4
003B5D72 2019-02-23 12:26:56 20.9 16 22.4
003B5D72 2019-02-23 11:57:49 20.9 16 22.5
003B5D72 2019-02-23 11:28:42 20.9 16 22.4
003B5D72 2019-02-23 10:59:36 20.9 16 22.1
003B5D72 2019-02-23 10:30:29 20.9 15 21.8
003B5D72 2019-02-23 10:01:21 20.9 15 21.8
003B5D72 2019-02-23 09:32:15 20.9 15 21.9
003B5D72 2019-02-23 09:03:07 20.9 15 21.9
003B5D72 2019-02-23 08:34:00 20.8 15 21.7
003B5D72 2019-02-23 08:04:54 20.9 14 21.7
003B5D72 2019-02-23 07:35:47 20.9 14 21.6
003B5D72 2019-02-23 07:06:40 20.9 14 21.3
003B5D72 2019-02-23 06:37:32 20.8 14 21
003B5D72 2019-02-23 06:08:29 20.8 14 21.1
003B5D72 2019-02-23 05:39:18 20.9 13 20.9
003B5D72 2019-02-23 05:10:11 20.8 13 20.9
003B5D72 2019-02-23 04:41:02 20.8 13 20.7
003B5D72 2019-02-23 04:11:51 20.8 13 20.7
003B5D72 2019-02-23 03:42:44 20.8 12 20.5
003B5D72 2019-02-23 03:13:35 20.9 12 20.4
003B5D72 2019-02-23 02:44:26 20.9 12 20.1
003B5D72 2019-02-23 02:15:17 20.9 12 20.1
003B5D72 2019-02-23 01:46:07 20.9 12 19.8
003B5D72 2019-02-23 01:16:58 20.9 12 19.8
003B5D72 2019-02-23 00:47:49 20.9 11 20.1
003B5D72 2019-02-23 00:18:40 20.9 11 20.1
003B5D72 2019-02-22 23:49:34 20.9 11 19.8
003B5D72 2019-02-22 23:20:24 21 11 19.8
003B5D72 2019-02-22 22:51:19 21 11 19.8
003B5D72 2019-02-22 22:22:12 21 11 19.8
003B5D72 2019-02-22 21:53:04 21.1 11 20.2
003B5D72 2019-02-22 21:23:58 21.1 11 20
003B5D72 2019-02-22 20:54:51 21.1 11 20.1
003B5D72 2019-02-22 20:25:45 21.1 10 20.3
003B5D72 2019-02-22 19:56:42 21.2 10 20.4
003B5D72 2019-02-22 19:26:58 21.2 10 20.6
003B5D72 2019-02-22 19:17:10 21.2 10 20.6
003B5D72 2019-02-22 19:07:22 21.2 10 20.8
003B5D72 2019-02-22 18:57:34 21.2 10 21
003B5D72 2019-02-22 18:47:46 21.3 10 21
003B5D72 2019-02-22 18:38:00 21.3 10 20.9
003B5D72 2019-02-22 18:28:10 21.3 10 19.5
003B5D72 2019-02-22 18:18:21 21.3 10 19.4
003B5D72 2019-02-22 18:08:34 21.3 10 19.8
003B5D72 2019-02-22 17:58:46 21.3 10 19.9
003B5D72 2019-02-22 17:49:00 21.3 10 19.8
003B5D72 2019-02-22 17:39:10 21.3 10 20.1
003B5D72 2019-02-22 17:29:22 21.4 11 20
003B5D72 2019-02-22 17:19:33 21.4 11 21.3
003B5D72 2019-02-22 17:09:45 21.4 11 21.2
003B5D72 2019-02-22 16:59:56 21.4 11 21.3
003B5D72 2019-02-22 16:50:08 21.4 11 21.4
003B5D72 2019-02-22 16:40:20 21.4 11 21.3
003B5D72 2019-02-22 16:30:32 21.4 11 21.6
003B5D72 2019-02-22 16:20:43 21.4 11 21.3
003B5D72 2019-02-22 16:10:55 21.4 11 21.4
003B5D72 2019-02-22 16:01:07 21.4 11 21.3
003B5D72 2019-02-22 15:51:18 21.3 11 22.3
003B5D72 2019-02-22 15:41:30 21.3 11 22.3
003B5D72 2019-02-22 15:31:41 21.3 11 22.1
003B5D72 2019-02-22 15:21:52 21.2 11 22.1
003B5D72 2019-02-22 15:12:06 21.2 11 22.2
003B5D72 2019-02-22 15:02:14 21.1 11 22.1
003B5D72 2019-02-22 14:52:25 21.1 11 21.9
003B5D72 2019-02-22 14:42:38 21.1 12 22.1
003B5D72 2019-02-22 14:32:46 21.1 12 22
003B5D72 2019-02-22 14:22:57 21 12 21.9
003B5D72 2019-02-22 14:13:09 21 12 21.9
003B5D72 2019-02-22 14:03:19 21 12 22.7
003B5D72 2019-02-22 13:53:30 21 12 22.6
003B5D72 2019-02-22 13:43:41 21 12 22.6
003B5D72 2019-02-22 13:33:55 21 12 22.6
003B5D72 2019-02-22 13:24:05 20.9 12 22.7
003B5D72 2019-02-22 13:14:16 20.9 12 22
003B5D72 2019-02-22 13:04:28 21 12 22.1
003B5D72 2019-02-22 12:54:40 20.9 12 22.1
003B5D72 2019-02-22 12:44:51 20.9 12 22
003B5D72 2019-02-22 12:35:02 20.9 12 22.1
003B5D72 2019-02-22 12:25:14 20.9 12 22
003B5D72 2019-02-22 12:15:24 20.9 12 22.2
003B5D72 2019-02-22 12:05:38 20.9 12 22.2
003B5D72 2019-02-22 11:55:48 20.9 12 22.3
003B5D72 2019-02-22 11:45:59 20.9 12 21.5
003B5D72 2019-02-22 11:36:11 20.8 12 21.5
003B5D72 2019-02-22 11:26:23 20.8 12 21.7
003B5D72 2019-02-22 11:16:02 20.8 12 21.6
003B5D72 2019-02-22 11:06:14 20.8 12 21.9
003B5D72 2019-02-22 10:56:26 20.7 12 21.8
003B5D72 2019-02-22 10:46:37 20.7 12 21.8
003B5D72 2019-02-22 10:36:50 20.7 12 21.7
003B5D72 2019-02-22 10:27:01 20.6 12 21.9
003B5D72 2019-02-22 10:17:13 20.6 12 21.8
003B5D72 2019-02-22 10:07:25 20.5 12 22.1
003B5D72 2019-02-22 09:57:36 20.6 12 21
003B5D72 2019-02-22 09:47:48 20.5 12 21.2
003B5D72 2019-02-22 09:38:00 20.6 12 21.4
003B5D72 2019-02-22 09:28:11 20.5 12 21.4
003B5D72 2019-02-22 09:18:23 20.5 12 21.6
003B5D72 2019-02-22 09:08:35 20.5 12 21.5
003B5D72 2019-02-22 08:58:47 20.5 12 21.6
003B5D72 2019-02-22 08:48:58 20.5 12 21.7
003B5D72 2019-02-22 08:39:10 20.5 12 22
003B5D72 2019-02-22 08:29:22 20.5 12 22.2
003B5D72 2019-02-22 08:19:34 20.5 12 22.2
003B5D72 2019-02-22 08:09:46 20.5 12 22
003B5D72 2019-02-22 07:59:59 20.5 12 21.9
003B5D72 2019-02-22 07:50:11 20.5 12 22.8
003B5D72 2019-02-22 07:40:21 20.5 12 22.7
003B5D72 2019-02-22 07:30:32 20.5 12 22.8
003B5D72 2019-02-22 07:20:43 20.5 12 22.7
003B5D72 2019-02-22 07:10:56 20.5 12 22.9
003B5D72 2019-02-22 07:01:06 20.5 12 22.7
003B5D72 2019-02-22 06:51:19 20.6 12 22.8
003B5D72 2019-02-22 06:41:29 20.5 12 22.8
003B5D72 2019-02-22 06:31:41 20.6 12 22.9
003B5D72 2019-02-22 06:21:52 20.6 12 23.6
003B5D72 2019-02-22 06:12:04 20.6 12 23.7
003B5D72 2019-02-22 06:02:15 20.5 12 23.6
003B5D72 2019-02-22 05:52:27 20.6 12 23.7
003B5D72 2019-02-22 05:42:38 20.6 12 23.7
003B5D72 2019-02-22 05:32:49 20.6 12 23.6
003B5D72 2019-02-22 05:23:03 20.6 12 23.5
003B5D72 2019-02-22 05:13:12 20.6 12 23.4
003B5D72 2019-02-22 05:03:22 20.6 12 23.4
003B5D72 2019-02-22 04:53:33 20.6 12 23.2
003B5D72 2019-02-22 04:43:45 20.6 12 23.4
003B5D72 2019-02-22 04:33:56 20.6 12 23.2
003B5D72 2019-02-22 04:24:08 20.6 12 23
003B5D72 2019-02-22 04:14:19 20.6 12 22.9
003B5D72 2019-02-22 04:04:30 20.6 12 23
003B5D72 2019-02-22 03:54:42 20.6 12 23
003B5D72 2019-02-22 03:44:53 20.6 12 22.4
003B5D72 2019-02-22 03:35:04 20.6 12 22.2
003B5D72 2019-02-22 03:25:16 20.6 12 22.2
003B5D72 2019-02-22 03:15:27 20.6 12 22.2
003B5D72 2019-02-22 03:05:05 20.7 12 22.2
003B5D72 2019-02-22 02:55:16 20.7 12 22.4
003B5D72 2019-02-22 02:45:27 20.6 12 22.4
003B5D72 2019-02-22 02:35:39 20.7 12 22.6
003B5D72 2019-02-22 02:25:51 20.7 12 22.5
003B5D72 2019-02-22 02:16:02 20.7 12 21.4
003B5D72 2019-02-22 02:06:17 20.7 12 21.2
003B5D72 2019-02-22 01:56:29 20.7 12 21
003B5D72 2019-02-22 01:46:38 20.7 12 20.9
003B5D72 2019-02-22 01:36:50 20.7 12 20.8
003B5D72 2019-02-22 01:27:01 20.7 12 20.8
003B5D72 2019-02-22 01:17:12 20.7 12 20.4
003B5D72 2019-02-22 01:07:23 20.7 12 20.4
003B5D72 2019-02-22 00:57:35 20.7 12 20.3
003B5D72 2019-02-22 00:47:45 20.7 12 19.8
003B5D72 2019-02-22 00:37:58 20.7 12 19.8
003B5D72 2019-02-22 00:28:09 20.7 12 19.8
003B5D72 2019-02-22 00:18:21 20.7 12 19.8
003B5D72 2019-02-22 00:08:34 20.7 12 19.5
003B5D72 2019-02-21 23:58:46 20.7 12 19.5
003B5D72 2019-02-21 23:48:56 20.7 12 18.9
003B5D72 2019-02-21 23:39:07 20.7 12 19
003B5D72 2019-02-21 23:29:18 20.7 12 18.8
003B5D72 2019-02-21 23:19:30 20.7 12 20.5
003B5D72 2019-02-21 23:09:41 20.8 12 20.3
003B5D72 2019-02-21 22:59:52 20.8 12 20
003B5D72 2019-02-21 22:50:03 20.8 12 19.7
003B5D72 2019-02-21 22:40:15 20.8 12 19.2
003B5D72 2019-02-21 22:30:27 20.8 12 19.1
003B5D72 2019-02-21 22:20:38 20.8 12 19.1
003B5D72 2019-02-21 22:10:50 20.8 12 19.3
003B5D72 2019-02-21 22:01:02 20.8 12 19.2
003B5D72 2019-02-21 21:51:13 20.8 12 19.2
003B5D72 2019-02-21 21:41:25 20.9 12 19.2
003B5D72 2019-02-21 21:31:36 20.9 12 19.2
003B5D72 2019-02-21 21:21:48 20.9 12 19.2
003B5D72 2019-02-21 21:11:59 20.9 12 20.9
003B5D72 2019-02-21 21:02:13 20.9 12 22.1
003B5D72 2019-02-21 20:52:22 20.9 12 23
003B5D72 2019-02-21 20:42:33 21 12 23.8
003B5D72 2019-02-21 20:32:45 20.9 12 24.4
003B5D72 2019-02-21 20:22:56 21 12 25
003B5D72 2019-02-21 20:13:07 21 12 25.5
003B5D72 2019-02-21 20:03:18 21 12 25.5
003B5D72 2019-02-21 19:53:30 21 12 25.4
003B5D72 2019-02-21 19:43:43 21.1 12 25.4
003B5D72 2019-02-21 19:33:54 21.1 12 25.5
003B5D72 2019-02-21 19:24:05 21.1 12 25.5
003B5D72 2019-02-21 19:14:17 21.1 12 25
003B5D72 2019-02-21 19:04:29 21.2 12 25
003B5D72 2019-02-21 18:54:07 21.1 12 25
003B5D72 2019-02-21 18:24:59 21.2 12 25
003B5D72 2019-02-21 17:55:53 21.3 13 24.9
003B5D72 2019-02-21 17:26:48 21.4 13 24.9
003B5D72 2019-02-21 16:57:40 21.3 13 24.9
003B5D72 2019-02-21 16:28:38 21.1 13 24.8
003B5D72 2019-02-21 15:59:30 20.8 13 24.8
003B5D72 2019-02-21 15:30:24 20.8 13 24.8
003B5D72 2019-02-21 15:01:16 20.7 13 24.8
003B5D72 2019-02-21 14:32:12 20.7 13 24.8
003B5D72 2019-02-21 14:03:03 20.7 13 24.2
003B5D72 2019-02-21 13:33:57 20.6 13 23.5
003B5D72 2019-02-21 13:04:51 20.6 13 22.7
003B5D72 2019-02-21 12:35:46 20.6 14 21.7
003B5D72 2019-02-21 12:06:38 20.6 14 20.4
003B5D72 2019-02-21 11:37:30 20.6 14 18.5
003B5D72 2019-02-21 11:08:24 20.6 14 15
003B5D72 2019-02-21 10:10:09 20.6 15 15.5
003B5D72 2019-02-21 09:41:00 20.6 15 15.5
003B5D72 2019-02-21 08:42:45 20.5 15 15.6
003B5D72 2019-02-21 08:13:36 20.6 16 15.1
003B5D72 2019-02-21 07:44:29 20.5 16 14.9
003B5D72 2019-02-21 07:15:21 20.6 17 14.7
003B5D72 2019-02-21 06:46:16 20.6 17 14.7
003B5D72 2019-02-21 05:48:01 20.6 17 14.7
003B5D72 2019-02-21 05:18:48 20.6 17 14.3
003B5D72 2019-02-21 03:51:26 20.7 17 14.2
003B5D72 2019-02-21 03:22:16 20.6 18 14.3
003B5D72 2019-02-21 02:23:59 20.7 18 18.2
003B5D72 2019-02-21 01:54:46 20.7 18 18.1
003B5D72 2019-02-21 01:25:35 20.7 18 18.1
003B5D72 2019-02-21 00:56:29 20.7 18 20.2
003B5D72 2019-02-21 00:27:19 20.7 18 20.2
003B5D72 2019-02-20 23:58:09 20.7 18 20.2
003B5D72 2019-02-20 22:59:50 20.7 18 20.2
003B5D72 2019-02-20 22:30:41 20.7 19 20.5
003B5D72 2019-02-20 22:01:32 20.7 19 21.8
003B5D72 2019-02-20 21:32:24 20.7 19 21.8
003B5D72 2019-02-20 21:03:14 20.7 19 21.8
003B5D72 2019-02-20 20:34:07 20.7 19 21.8
003B5D72 2019-02-20 20:04:59 20.8 19 21.9
003B5D72 2019-02-20 19:35:52 20.8 19 22.1
003B5D72 2019-02-20 19:06:46 20.8 19 22.1
003B5D72 2019-02-20 18:36:57 20.8 19 22.2
003B5D72 2019-02-20 18:07:47 20.8 20 22.3
003B5D72 2019-02-20 17:38:41 20.9 20 22.4
003B5D72 2019-02-20 16:40:30 20.9 21 22.5
003B5D72 2019-02-20 16:11:27 20.9 22 22.6
003B5D72 2019-02-20 15:42:19 20.8 21 22.6
003B5D72 2019-02-20 15:13:12 20.8 22 22.7
003B5D72 2019-02-20 14:15:00 20.9 23 22.8